GFSSE_sfc_wetblb_000.txt.gz
Wetbulb
60.47 64.16 74.60 74.50 73.43 72.49 71.55 70.55 70.20 69.69 69.05 68.34 67.70 66.99 66.35 65.71 65.20 65.10 65.10 65.30 65.14 65.23 65.39 65.63 66.02 66.39 66.88 67.12 67.68 68.25 68.75 69.81 70.61 71.53 73.56 73.93 73.96 74.16 74.96 74.32 75.29 74.50 75.75
63.36 64.95 74.40 74.60 73.90 72.64 72.33 71.85 71.47 71.20 70.69 69.17 68.39 67.88 67.48 66.93 66.73 66.63 66.58 66.53 66.50 66.75 66.50 66.45 66.56 66.77 66.66 67.24 67.79 68.01 68.36 68.94 70.04 70.65 72.04 73.27 73.55 73.96 74.36 74.36 74.50 74.20 75.83
61.93 66.14 72.78 74.53 74.05 73.43 73.35 73.01 72.71 72.07 71.32 70.49 69.94 68.88 68.09 68.03 67.80 67.86 68.05 67.96 67.96 67.93 68.01 67.66 67.68 67.31 67.09 66.91 67.70 68.27 69.16 69.09 68.92 69.83 70.28 72.33 72.23 73.57 73.71 74.32 74.37 74.92 74.90
63.80 66.86 71.66 74.52 74.35 73.95 73.68 73.31 72.99 72.66 71.89 70.97 70.19 69.61 68.75 69.16 68.59 68.61 68.74 68.77 68.79 69.18 69.24 68.89 68.78 68.24 67.68 67.46 67.35 69.00 69.75 68.88 68.72 69.46 69.98 71.42 72.02 72.77 73.44 73.63 73.80 74.64 74.65
64.48 68.53 70.90 74.72 74.30 74.18 73.81 73.56 73.13 72.86 72.14 71.52 70.18 69.67 69.82 70.16 70.55 70.66 69.49 69.13 69.10 69.49 70.15 69.81 69.58 69.17 68.55 68.19 68.70 69.47 69.85 68.86 68.55 68.60 70.01 71.03 71.47 72.40 73.12 72.91 73.32 73.48 73.79
65.45 68.76 71.52 74.57 74.19 74.20 73.98 73.71 73.38 72.78 72.47 71.90 70.67 70.32 70.95 70.43 70.54 70.20 69.57 69.63 69.52 69.85 69.14 68.92 69.58 69.93 69.53 69.04 69.89 69.77 69.91 69.00 69.35 68.41 69.63 70.22 71.50 71.53 73.08 72.85 73.18 72.96 72.84
65.39 67.43 70.44 74.35 74.17 74.18 74.13 73.88 73.47 73.15 72.83 72.46 71.47 70.79 70.95 70.49 70.20 69.81 69.75 69.55 69.41 69.35 69.02 68.77 69.10 70.18 69.84 69.43 69.16 70.30 69.41 69.80 68.28 68.65 69.18 69.36 70.03 71.08 72.52 73.30 73.25 73.31 72.63
64.63 66.16 69.45 74.13 74.12 73.85 73.85 73.85 73.49 73.06 72.62 72.43 72.09 71.58 70.84 70.22 70.03 69.37 69.32 69.09 69.08 68.82 68.39 68.17 69.36 69.66 70.02 69.39 68.91 69.90 69.52 69.68 68.25 67.78 68.60 69.27 69.44 71.05 72.44 73.11 73.48 73.70 73.61
64.30 66.21 69.11 71.87 73.40 74.12 73.72 73.42 73.06 72.69 72.68 72.79 71.83 70.60 69.56 68.81 67.48 66.97 66.95 67.47 67.83 67.90 67.76 67.81 67.88 68.90 69.29 69.02 68.85 69.17 68.41 68.60 67.79 67.72 68.05 68.99 69.62 71.26 72.48 73.21 73.31 73.87 73.73
64.29 65.70 68.21 70.55 71.04 70.59 71.57 73.54 73.16 73.04 72.29 71.18 69.86 68.79 66.56 66.27 66.11 65.90 66.10 65.87 66.31 66.74 66.95 67.07 67.36 67.58 68.56 68.86 68.52 68.22 67.97 68.03 67.74 67.31 67.98 68.70 69.97 71.26 72.34 73.01 73.48 74.07 73.80
64.42 65.10 66.73 68.13 68.22 68.37 69.23 71.28 73.05 71.28 70.17 69.47 67.62 66.57 67.04 63.57 62.75 63.80 64.24 64.75 65.11 66.00 66.39 66.53 66.57 67.59 67.83 67.32 67.49 67.57 67.70 65.74 66.76 67.31 67.88 68.72 70.14 70.78 72.12 72.69 73.08 73.45 73.45
61.47 62.89 65.04 65.49 65.83 66.23 67.86 66.85 66.96 66.04 64.93 63.21 63.74 63.18 62.76 62.11 61.80 62.87 63.86 64.87 65.66 66.36 66.55 66.94 67.11 67.06 66.72 64.80 65.11 67.25 65.73 64.65 65.70 66.58 67.65 68.93 69.84 70.69 71.72 72.16 72.84 73.26 73.37
61.24 62.80 62.98 63.85 63.65 63.96 64.50 63.25 63.19 61.89 61.95 61.88 62.49 62.35 61.19 60.86 60.35 61.67 61.95 62.15 61.76 63.68 63.87 64.16 64.05 64.80 64.97 64.20 63.67 63.93 63.97 63.99 65.15 66.24 67.17 68.67 69.39 70.57 71.11 71.94 72.42 72.88 73.17
55.24 59.41 60.69 62.02 62.30 62.01 62.09 61.72 61.68 60.74 60.31 60.09 60.61 61.63 60.28 59.68 59.86 60.19 60.07 60.69 61.10 61.80 62.06 62.49 62.73 63.34 63.71 63.61 63.17 62.97 63.07 63.75 64.64 65.54 66.13 67.87 69.01 70.58 71.11 71.62 71.92 72.37 72.85
52.62 54.18 58.09 59.79 60.62 60.25 59.98 59.98 60.35 59.91 60.23 59.83 59.60 60.06 60.04 59.57 59.71 60.27 60.20 60.54 61.42 62.38 61.78 62.17 61.98 62.10 62.51 62.61 63.10 62.65 62.64 62.76 63.79 65.03 66.08 67.17 67.92 70.41 70.44 71.13 71.80 71.70 72.04
52.57 53.46 56.47 58.52 59.03 59.01 58.84 58.86 59.66 59.58 59.97 59.80 59.68 59.90 60.67 60.20 60.07 59.93 59.94 60.79 61.27 60.88 60.60 60.96 61.06 61.45 61.52 62.20 62.21 62.42 62.40 62.24 62.97 64.07 65.40 66.42 67.31 69.58 70.81 70.52 71.92 71.67 72.07
51.82 54.06 56.85 57.82 58.38 58.95 58.84 59.15 59.26 59.76 59.89 59.49 60.19 60.63 61.18 61.06 60.87 60.51 60.38 61.08 60.03 60.15 60.11 59.93 60.24 60.84 60.81 60.91 61.26 61.88 62.09 62.30 62.72 63.26 64.89 66.13 67.33 68.69 70.12 70.75 70.55 71.33 71.84
52.73 54.91 56.58 59.52 58.93 58.95 58.60 58.58 59.21 59.28 59.39 59.51 60.27 60.95 61.55 61.86 60.89 60.17 60.30 60.06 59.98 59.85 59.68 59.09 59.30 59.28 59.89 60.00 60.38 61.03 61.76 61.84 62.61 63.17 64.62 66.11 67.59 68.77 68.54 70.27 69.29 70.20 70.41
54.02 55.42 56.88 58.55 58.63 58.74 57.91 57.96 58.19 59.46 59.73 60.16 60.52 60.55 60.95 61.71 61.76 60.23 59.79 59.56 59.57 59.13 58.81 58.54 58.10 58.97 58.66 59.00 59.67 60.33 61.02 61.40 62.22 64.22 64.71 66.09 67.36 67.45 68.68 69.20 68.58 69.66 70.29
55.17 56.64 57.82 58.13 58.47 58.16 57.55 57.65 58.38 58.50 59.35 60.03 60.82 60.99 61.47 61.39 62.12 60.82 59.55 58.78 59.04 58.43 57.85 57.36 57.44 58.56 58.87 59.09 60.06 60.64 60.35 60.95 62.06 63.51 64.30 65.93 66.76 66.82 67.70 67.89 68.68 69.51 68.96
55.72 56.56 57.17 57.12 57.34 56.93 56.98 56.58 57.00 57.57 58.21 59.33 60.68 61.82 61.97 62.11 61.38 59.74 58.90 58.72 58.75 58.09 57.72 57.26 57.52 57.53 57.88 58.80 57.74 58.12 59.71 61.61 62.06 62.70 64.58 65.29 65.04 64.86 66.85 68.22 68.83 69.11 68.64
55.70 56.60 56.45 57.04 56.84 57.18 56.43 57.41 57.91 57.89 58.52 59.38 60.35 61.71 62.47 62.22 61.21 59.65 58.66 58.92 58.46 57.73 57.12 56.92 57.38 56.78 57.36 58.38 56.84 56.90 55.57 58.41 60.94 62.84 62.68 63.66 64.56 66.04 66.18 67.83 67.32 67.72 67.68
55.44 56.30 56.70 56.67 57.19 57.35 57.18 57.91 57.76 57.58 58.00 58.02 58.68 59.59 60.08 60.55 61.27 60.65 59.70 59.12 58.34 57.51 56.48 56.40 57.26 57.65 56.64 57.24 58.51 57.72 54.80 53.85 57.94 61.37 62.40 63.17 64.45 65.52 65.49 66.91 66.44 66.49 66.51
55.40 56.79 56.49 56.63 56.99 57.65 57.98 57.19 56.80 56.26 56.00 56.70 57.62 58.47 59.16 60.68 60.88 60.29 59.96 59.11 58.12 57.73 56.84 57.18 58.02 58.65 58.71 57.26 58.65 60.14 58.92 59.30 56.80 56.06 61.32 62.75 64.74 64.27 64.78 65.68 64.99 65.72 65.94
55.97 56.37 56.47 56.75 57.13 57.54 58.35 57.96 57.47 56.28 56.40 57.30 57.32 57.76 58.42 59.45 60.82 60.12 59.23 58.57 58.06 57.85 57.54 57.48 58.04 58.15 58.66 58.37 59.18 59.48 59.66 60.13 60.14 59.31 55.50 59.64 62.19 63.58 64.87 65.60 65.17 65.14 65.44
55.09 55.90 56.33 56.62 56.38 57.38 57.83 58.06 57.81 56.46 56.58 55.86 56.28 56.22 56.58 57.37 59.16 59.07 58.75 58.54 58.04 58.17 58.13 58.15 58.53 58.45 58.68 59.24 59.78 60.46 60.16 58.99 58.00 58.15 58.65 58.85 59.13 61.93 64.12 64.66 64.74 64.48 64.50

GFSSE_sfc_wetblb_006.txt.gz
Wetbulb
67.42 72.44 74.91 74.70 74.08 73.62 73.21 72.06 71.28 70.34 69.85 69.17 68.75 68.19 67.20 66.61 66.26 65.83 65.68 65.76 65.74 65.79 66.11 66.07 66.36 66.14 66.41 66.63 66.92 67.38 67.95 68.52 70.08 71.01 72.02 73.14 73.08 73.13 74.04 74.24 74.74 75.08 75.26
68.74 72.41 74.78 74.63 74.33 73.95 73.35 72.69 72.32 71.83 71.12 69.69 69.15 68.59 67.89 67.33 66.99 66.61 66.51 66.72 67.01 67.17 67.36 67.44 67.69 67.20 67.11 66.85 67.08 67.28 67.64 67.92 68.60 70.04 70.07 72.15 72.45 73.64 74.05 74.41 74.33 75.43 75.26
68.55 72.65 74.39 74.73 74.23 74.08 73.83 73.15 72.76 72.49 71.69 70.59 69.76 69.27 68.79 68.23 67.89 67.89 67.69 68.21 68.32 68.30 68.73 68.90 68.93 68.62 68.04 67.76 67.36 67.66 67.55 67.89 68.20 68.84 69.57 71.73 73.77 73.25 73.92 74.38 74.63 74.71 74.31
68.71 72.79 72.72 74.86 74.41 74.33 73.98 73.61 73.02 72.87 72.04 71.28 70.39 69.87 69.44 69.20 68.96 68.84 68.77 69.12 69.43 69.46 69.51 69.53 70.39 69.94 69.49 68.95 68.28 67.67 68.05 68.27 68.52 68.57 67.95 68.35 71.53 72.94 73.58 74.22 74.64 74.73 74.73
69.20 72.02 72.87 74.96 74.51 74.46 74.26 73.71 73.36 73.24 72.82 71.89 70.89 70.30 70.00 70.03 70.51 70.46 69.30 69.39 70.11 70.19 69.95 69.68 70.56 71.03 70.34 69.72 69.28 68.87 68.09 68.09 68.92 69.00 67.19 68.94 70.38 72.84 73.02 73.89 74.28 74.23 74.28
69.43 70.57 73.03 74.80 74.58 74.51 74.51 74.01 73.76 73.51 73.09 72.69 71.59 71.33 70.80 71.16 71.37 71.28 70.22 70.06 70.50 70.74 70.35 70.25 70.34 70.57 70.03 70.38 70.20 69.82 69.17 68.76 68.62 68.15 68.44 69.53 68.68 71.59 71.87 73.44 73.32 74.10 73.81
69.71 71.31 72.05 74.80 74.70 74.68 74.76 74.36 74.26 74.08 73.80 73.53 72.64 71.74 71.64 71.95 71.88 71.63 70.93 71.01 70.93 70.55 70.69 70.52 70.63 71.07 70.94 69.44 69.61 69.85 70.01 69.39 69.74 68.37 68.93 69.19 68.75 70.15 71.48 72.97 73.07 73.79 73.28
69.53 71.84 73.01 74.78 75.00 74.52 74.46 74.51 74.23 74.04 73.82 73.45 73.16 72.67 72.40 72.52 72.05 71.21 70.87 70.60 70.47 70.27 70.25 70.40 70.19 69.91 70.17 69.50 69.22 69.51 69.16 69.34 69.74 68.76 69.93 69.54 69.93 69.01 71.11 72.25 73.44 73.36 72.93
69.73 70.85 73.20 74.57 75.34 74.92 74.45 74.10 74.04 73.81 73.64 73.34 73.11 73.17 72.91 72.35 71.06 70.06 68.86 68.31 68.45 68.65 69.09 69.39 69.37 69.32 69.11 68.66 68.69 68.72 68.99 69.06 69.41 68.91 68.94 70.24 70.76 69.72 71.21 72.05 72.72 72.69 73.05
70.06 69.82 71.27 73.61 74.06 73.46 73.63 74.42 74.11 73.88 73.78 73.49 73.47 72.99 72.53 70.84 69.00 67.19 67.20 67.52 67.03 67.14 67.50 67.81 68.39 68.48 68.98 68.81 68.54 68.41 68.26 69.03 69.25 68.42 68.94 69.36 70.27 69.83 70.40 71.65 72.69 72.15 72.62
68.97 70.58 70.80 71.91 73.38 72.82 71.94 73.78 74.03 73.55 73.57 73.23 72.27 72.23 70.87 68.94 69.22 69.10 67.82 65.14 65.44 65.85 66.24 66.92 67.25 67.42 67.64 68.03 68.20 68.17 68.31 68.06 68.06 67.81 67.99 70.19 68.64 69.66 69.66 70.45 71.94 71.80 72.08
68.01 69.05 70.56 72.44 72.67 72.55 70.52 72.84 73.78 72.53 71.97 70.98 70.41 70.48 70.08 69.74 69.82 68.26 67.07 64.95 65.60 65.79 66.56 67.50 67.39 67.52 67.28 67.70 67.84 68.17 67.74 67.69 67.55 67.11 67.95 69.33 68.62 69.24 69.76 69.78 70.89 71.80 71.78
68.16 68.94 69.92 72.12 73.62 72.87 71.39 72.02 72.21 70.89 71.00 70.78 70.99 70.28 70.19 69.64 69.44 68.61 68.31 68.05 68.54 67.57 67.26 67.62 68.06 67.92 67.81 66.78 67.66 67.07 66.96 66.34 65.92 66.98 68.97 68.00 68.11 68.78 69.24 69.55 70.52 71.40 71.68
66.67 68.43 69.91 70.94 73.00 73.69 71.63 71.48 71.00 70.49 70.45 69.92 69.66 70.22 69.50 68.79 68.88 68.70 67.71 67.67 67.88 67.00 66.86 67.44 67.09 67.25 67.63 67.74 67.05 66.40 66.35 66.68 65.68 65.60 68.68 66.89 67.67 68.64 69.07 69.31 70.35 70.93 71.31
66.31 68.37 69.84 71.01 72.31 72.89 73.25 71.66 70.82 70.02 69.22 69.24 68.41 69.68 69.73 68.76 68.85 68.58 68.11 67.40 67.44 67.84 66.50 66.77 66.97 66.74 66.63 66.64 67.05 66.66 66.19 66.34 66.85 66.38 66.96 67.09 67.11 68.40 68.81 69.12 70.25 70.56 70.79
66.92 68.40 70.06 70.66 72.94 73.12 73.11 72.45 70.79 70.49 69.44 68.56 68.02 69.24 69.80 69.27 68.82 68.47 68.31 68.30 68.65 69.20 67.90 66.49 66.61 66.16 65.86 66.29 66.62 66.94 66.80 66.34 66.62 67.53 67.17 67.06 67.50 68.15 68.51 68.71 69.95 70.03 70.35
67.34 68.78 70.50 71.03 72.22 73.17 72.59 71.77 70.33 69.34 68.80 67.67 68.53 70.11 69.92 69.98 69.44 69.33 70.07 70.05 69.32 70.68 69.07 67.07 66.47 66.68 65.49 65.68 65.82 66.47 66.97 67.20 66.83 66.91 66.80 66.35 67.51 68.35 68.38 68.79 69.21 69.14 69.58
68.32 68.25 69.74 69.52 71.29 72.65 72.68 71.42 69.36 68.57 67.88 67.99 68.77 69.18 69.78 69.95 69.63 70.03 69.54 68.95 69.54 69.21 67.56 65.75 66.48 64.94 64.81 64.59 65.01 65.52 66.16 66.16 66.36 66.32 65.97 66.08 67.38 68.34 68.70 69.37 69.16 69.06 70.08
68.75 68.72 68.59 69.02 70.22 72.05 72.81 70.93 70.27 69.65 68.15 68.43 68.66 68.77 69.38 69.67 69.63 70.08 69.34 69.13 68.92 65.98 66.03 67.01 65.73 65.45 64.36 63.94 64.80 65.45 66.21 64.95 65.68 65.71 65.67 67.07 68.29 68.54 68.32 69.33 69.35 69.50 69.85
68.24 68.89 67.81 68.62 70.93 71.85 71.06 70.12 68.09 67.88 68.10 68.56 68.34 68.80 69.40 69.63 69.28 68.99 68.61 67.84 65.49 65.34 66.40 66.27 65.37 65.71 64.51 64.20 64.07 64.04 64.98 65.23 65.15 64.90 65.71 66.95 68.22 68.67 68.97 69.61 70.39 70.20 69.85
67.00 67.08 67.25 68.08 71.70 70.84 68.62 66.54 66.03 65.59 66.86 67.34 68.15 69.52 69.59 69.35 68.98 68.81 67.72 66.99 67.20 65.08 63.62 64.95 65.39 64.52 64.08 64.93 64.26 63.61 64.02 65.08 65.46 64.98 65.98 66.90 67.84 68.29 69.63 70.08 70.55 71.12 70.54
65.80 66.65 67.57 68.64 69.94 69.86 67.85 68.28 66.83 66.62 66.66 67.98 69.06 69.24 69.62 69.03 68.60 68.08 67.63 66.86 65.84 63.89 64.62 64.96 64.32 64.25 64.19 64.76 62.55 62.25 58.49 60.92 63.28 64.55 66.10 66.80 67.74 68.57 68.81 69.64 70.64 70.87 72.06
65.35 66.53 67.64 69.11 69.03 68.81 69.00 67.84 68.04 68.05 68.12 66.47 66.92 67.19 68.50 68.09 67.98 67.53 66.89 66.27 65.57 65.84 65.48 65.13 64.62 63.13 61.72 63.84 64.75 62.70 58.14 56.59 59.75 63.61 65.55 66.58 67.70 69.42 69.06 70.05 70.50 70.91 71.09
65.35 66.86 68.27 68.27 67.79 68.06 68.32 67.41 67.12 64.36 63.95 66.20 66.65 67.96 67.28 66.94 66.56 66.43 66.62 66.11 66.09 65.72 65.29 64.63 64.11 64.07 63.78 62.35 64.08 63.66 64.31 64.21 58.31 57.75 65.54 66.33 67.47 67.98 68.59 69.59 70.29 68.62 67.66
65.77 66.69 67.63 67.71 67.74 67.98 68.28 68.12 66.24 65.85 65.59 66.67 66.59 65.75 66.47 67.30 66.27 65.54 66.18 65.58 65.53 65.14 65.21 65.01 63.98 64.13 64.42 63.67 62.22 62.31 63.31 63.46 63.67 60.00 59.75 63.15 66.81 67.98 68.95 70.01 69.34 69.48 68.61
65.89 66.52 67.04 67.15 67.12 67.85 67.53 67.67 67.46 67.07 65.60 65.46 65.44 64.64 64.78 65.51 65.51 65.28 65.07 65.38 65.80 65.96 65.17 64.64 64.75 64.50 65.38 65.33 64.52 63.54 63.58 62.61 60.79 63.77 63.52 63.63 63.87 66.10 68.13 68.65 67.91 67.71 66.20

GFSSE_sfc_wetblb_009.txt.gz
Wetbulb
70.69 73.31 74.58 74.40 73.68 73.30 72.90 71.69 71.30 70.46 69.95 69.16 68.47 67.99 67.56 66.82 66.19 66.00 65.84 65.66 65.64 65.80 65.79 66.00 66.24 66.03 66.40 66.52 66.71 67.22 67.61 68.32 69.78 70.92 71.62 73.03 72.99 73.26 73.92 74.12 75.37 75.25 75.54
71.09 73.22 74.49 74.26 73.81 73.63 73.39 72.53 72.11 71.72 71.12 69.92 69.11 68.57 67.80 67.21 66.77 66.71 66.36 66.48 66.62 66.78 66.97 67.26 67.58 67.58 67.19 67.17 67.40 67.37 67.96 68.00 68.39 69.78 70.41 71.57 73.62 73.89 73.76 74.48 74.63 74.69 74.61
71.03 73.15 73.45 74.19 74.14 74.13 73.66 73.23 72.81 72.32 71.36 70.45 69.71 69.18 68.57 67.80 67.34 67.07 67.05 67.29 67.74 67.93 68.12 68.65 68.95 68.90 68.47 68.09 67.65 67.82 67.82 68.07 68.52 68.85 69.31 69.91 73.08 74.14 74.08 74.53 74.20 74.04 74.39
71.62 73.95 72.28 74.52 74.26 74.44 74.01 73.42 73.15 72.82 71.76 71.00 70.35 69.73 69.15 68.94 68.48 68.28 68.17 68.30 68.90 69.17 69.11 69.25 69.78 70.38 69.98 69.51 68.85 68.25 68.19 68.53 68.96 69.12 67.61 64.34 67.22 74.99 74.21 73.89 74.35 73.85 74.09
71.24 74.16 73.51 74.49 74.14 74.44 74.34 73.62 73.40 73.02 72.67 71.71 70.76 70.32 70.01 69.74 69.68 69.71 69.20 69.04 69.21 70.05 70.09 70.03 69.90 70.72 70.94 70.27 69.90 69.27 68.74 68.52 69.12 69.02 67.14 65.34 68.00 73.39 73.46 73.42 74.17 73.81 74.39
70.58 73.89 74.88 74.24 74.12 74.39 74.42 74.09 73.67 73.32 73.12 72.42 71.28 70.86 70.61 70.63 71.35 71.33 69.90 69.75 70.00 70.39 70.86 70.77 70.64 70.53 70.70 70.22 70.21 70.13 69.81 69.11 68.58 67.59 67.26 68.30 68.74 72.16 72.11 72.75 73.12 74.59 73.79
70.06 72.23 75.16 74.41 74.44 74.32 74.64 74.37 73.99 73.62 73.49 73.15 72.22 71.58 71.25 71.80 71.88 71.56 70.90 71.00 71.05 71.32 71.22 70.77 71.29 70.56 70.26 69.89 69.48 69.71 69.76 70.01 69.56 69.50 67.55 68.84 68.96 70.49 70.23 71.59 73.00 73.48 73.69
69.85 71.12 73.46 75.00 74.51 74.39 74.46 74.27 74.06 73.81 73.68 73.49 73.22 72.82 72.28 72.25 72.55 72.11 71.34 71.17 71.07 70.79 70.59 70.44 70.16 69.97 69.80 69.43 69.39 69.14 69.00 69.04 69.35 69.31 69.78 70.23 70.09 69.25 68.92 70.87 72.75 72.82 73.47
69.59 70.18 71.07 75.60 75.12 74.65 74.48 74.24 74.06 74.02 74.01 73.79 73.57 73.16 72.94 72.40 72.63 71.66 70.65 69.92 69.34 69.00 68.95 69.10 69.39 69.69 69.50 69.16 68.88 68.86 68.81 69.12 68.77 68.34 68.54 69.87 70.91 69.31 68.09 70.62 72.30 72.58 72.97
69.62 69.44 70.78 72.86 75.35 74.45 73.58 74.40 74.30 74.14 74.03 73.65 73.36 73.13 72.83 71.91 71.76 70.82 68.76 68.10 67.86 67.33 67.40 67.58 68.01 68.71 69.03 69.40 69.08 68.81 68.73 68.73 68.49 68.22 68.86 69.63 70.47 68.67 67.77 69.57 72.02 72.16 72.35
67.47 70.01 70.29 70.70 73.11 73.91 72.36 73.32 74.43 73.88 73.72 73.59 72.85 72.59 72.18 70.30 69.56 70.14 70.17 67.02 66.50 66.16 66.07 66.61 67.04 67.41 68.06 68.57 68.74 68.62 68.78 67.45 67.19 67.42 67.18 71.33 69.93 69.19 68.68 68.62 70.36 71.49 71.98
66.70 68.35 69.74 73.48 72.12 73.22 71.31 73.20 74.12 73.01 72.74 72.20 71.27 70.68 71.69 70.46 70.15 69.58 69.59 66.54 66.31 66.24 66.36 66.95 67.75 68.31 68.28 67.72 67.97 68.97 67.68 66.82 66.27 66.77 67.20 71.03 69.69 68.65 68.17 69.37 69.47 70.87 71.46
66.34 68.09 69.68 74.15 75.30 74.00 72.27 71.92 73.61 72.56 71.97 71.62 71.48 72.16 72.50 70.15 70.92 70.11 69.25 69.28 68.70 67.26 68.37 67.55 67.85 67.84 67.26 67.85 67.07 67.40 67.43 66.66 66.70 67.20 69.50 69.71 69.11 68.55 67.84 69.11 69.58 70.35 71.14
66.48 66.92 70.35 71.70 74.91 76.10 72.73 70.67 71.94 71.93 71.81 70.86 71.37 72.69 70.98 69.26 70.30 70.00 68.68 68.88 70.25 68.13 68.33 67.60 66.90 69.07 67.42 67.60 67.10 67.07 67.73 66.71 65.94 66.51 68.40 68.37 68.15 67.61 67.58 69.03 69.53 70.04 71.07
66.82 67.65 68.94 72.79 75.10 75.68 76.01 71.83 72.59 72.30 70.65 71.74 70.79 70.98 70.34 69.43 70.60 69.75 70.40 68.72 68.56 67.93 67.93 68.54 68.16 68.13 68.55 67.05 66.16 66.74 66.44 66.10 67.26 66.85 67.01 68.14 67.32 67.27 67.90 69.06 69.34 69.93 71.02
67.34 68.12 69.10 72.56 75.39 75.62 74.58 76.03 74.50 74.79 72.10 70.61 69.94 69.59 70.55 70.24 70.37 68.98 69.06 68.86 70.08 69.81 68.22 67.80 67.17 67.12 66.14 65.14 66.54 66.68 67.04 65.83 65.73 67.00 66.61 67.26 68.04 67.82 67.97 69.01 69.21 69.96 70.76
67.61 69.16 72.93 74.52 75.36 75.72 75.78 75.55 73.41 71.81 71.01 69.88 69.22 71.15 70.31 70.94 70.95 69.90 68.65 70.28 70.22 69.57 69.08 67.88 68.07 67.80 65.85 65.90 65.98 65.27 66.30 66.97 66.89 67.46 67.61 65.74 67.26 68.41 69.28 68.92 68.88 70.00 70.16
69.59 70.73 72.93 70.80 74.49 75.80 75.55 74.66 72.98 71.18 70.33 68.92 68.82 69.55 70.78 70.60 70.34 69.34 69.04 69.81 70.69 69.78 69.80 68.45 65.86 65.81 66.24 63.79 64.43 65.86 65.94 66.23 66.46 67.15 65.51 66.91 66.50 67.83 68.23 69.47 69.33 69.91 69.64
70.84 72.68 72.22 74.16 73.31 75.32 75.94 73.81 73.43 74.30 69.95 68.76 68.84 69.22 69.90 69.97 69.86 70.00 69.39 69.79 70.23 69.54 67.92 66.85 66.33 67.79 65.68 64.60 64.73 66.51 65.92 65.81 65.43 65.59 66.97 66.23 67.73 67.44 67.42 69.01 70.22 70.14 70.23
71.78 73.63 73.91 73.25 74.70 75.71 74.05 74.52 71.38 69.69 69.33 68.81 68.86 68.72 69.56 69.74 69.42 69.96 69.44 69.06 69.37 67.70 66.42 66.76 66.75 66.32 66.46 66.31 63.84 65.05 65.88 65.78 65.09 65.60 66.53 65.94 66.60 67.24 68.83 69.36 68.85 68.30 69.87
69.77 71.01 72.75 72.19 74.09 73.38 71.91 70.29 69.04 67.39 68.60 68.02 68.57 69.58 69.50 69.71 69.99 69.56 68.63 67.75 67.87 68.04 67.24 66.73 65.89 63.23 64.91 66.59 64.90 63.85 65.31 65.21 65.88 64.81 64.80 65.44 65.86 67.11 68.64 68.39 69.71 70.00 69.93
68.82 69.93 70.18 70.72 73.78 73.59 72.25 71.52 70.02 69.57 67.96 68.06 68.28 69.66 69.81 69.41 69.26 68.86 68.11 67.10 67.51 67.75 66.12 65.20 65.09 63.94 64.17 66.38 62.62 62.90 59.17 61.79 63.44 64.15 64.56 64.89 66.64 67.02 67.38 68.18 69.06 70.92 71.69
68.02 68.73 68.93 69.94 72.11 73.43 73.09 71.38 70.37 69.45 68.76 67.26 67.04 67.53 68.76 68.54 68.27 68.19 67.74 67.04 66.90 66.86 65.60 66.17 65.61 63.99 63.08 64.09 64.53 63.43 58.79 55.86 59.09 63.57 64.69 65.22 67.10 67.83 68.69 68.97 69.69 70.29 71.13
67.75 68.89 69.74 70.63 71.56 71.71 72.24 70.30 71.43 66.93 64.99 65.81 67.84 67.45 67.47 67.48 66.91 66.83 67.18 66.78 66.95 66.66 66.07 65.59 65.77 64.76 63.96 62.57 64.88 65.97 65.10 64.38 58.72 57.63 63.09 66.38 68.33 68.31 68.94 69.26 71.17 70.73 70.75
67.95 68.61 70.18 70.23 70.25 70.63 71.25 71.27 67.36 68.42 66.19 66.50 66.56 66.72 67.78 68.27 66.75 65.66 66.57 66.15 66.24 67.28 65.94 65.65 64.50 64.36 66.02 64.99 64.42 64.18 63.72 62.82 61.69 61.92 57.96 61.50 67.08 68.94 68.59 71.16 70.09 70.44 70.21
68.04 68.89 68.96 68.36 68.66 68.74 68.54 68.60 69.10 67.29 66.17 65.19 65.49 65.48 66.11 66.55 66.04 65.91 65.64 65.97 66.37 66.29 65.66 66.31 65.31 64.97 65.99 66.06 66.99 64.32 62.21 61.43 60.78 59.19 63.29 63.91 63.56 65.91 69.23 69.67 69.08 66.83 67.54

GFSSE_sfc_wetblb_015.txt.gz
Wetbulb
69.32 72.23 74.97 74.77 74.02 73.44 73.11 71.60 71.30 70.99 70.66 70.20 68.83 68.24 68.10 68.36 67.92 66.63 66.28 66.10 65.93 65.61 65.40 65.54 65.93 65.84 65.91 66.00 65.83 66.28 66.80 67.34 66.99 68.81 71.18 72.32 73.61 74.97 74.90 74.35 75.46 74.28 75.94
69.84 72.46 74.72 74.27 73.74 73.64 72.88 72.33 71.92 71.57 71.25 70.61 69.63 68.76 68.01 67.59 67.17 66.99 66.67 66.40 66.18 65.88 66.17 66.47 66.87 66.87 66.60 66.44 66.56 66.60 66.71 68.44 67.98 67.35 67.74 69.27 71.17 73.81 73.78 73.46 74.69 74.07 75.52
70.02 71.81 73.02 74.02 73.67 73.54 72.99 72.65 72.10 71.68 71.38 71.10 70.47 69.63 68.88 68.62 67.68 67.38 67.33 66.90 66.88 66.91 67.28 67.41 67.76 68.16 68.22 67.76 67.39 67.30 67.87 69.31 69.38 67.79 67.87 64.77 65.64 70.14 73.88 73.95 73.96 74.73 75.07
69.89 70.94 71.39 74.02 73.49 73.44 73.07 72.72 72.16 71.93 71.78 71.41 70.94 69.63 68.83 69.08 68.65 67.81 67.57 67.25 67.52 67.89 68.21 68.27 68.52 69.13 69.83 69.72 69.15 68.70 68.73 69.07 69.82 68.30 65.88 65.83 64.90 69.44 74.87 74.01 74.18 73.94 73.97
69.70 70.14 70.88 73.95 73.65 73.56 73.22 72.83 72.41 72.16 72.06 71.96 71.03 70.52 69.88 69.64 70.06 69.99 68.73 68.59 68.55 68.83 69.36 69.57 69.42 69.61 69.85 71.18 70.72 70.77 70.11 68.92 68.51 68.06 65.24 63.60 61.83 67.35 74.67 73.97 74.18 74.09 73.55
70.03 69.40 72.80 73.67 73.57 73.45 73.39 73.15 72.90 72.58 72.48 72.28 71.83 71.11 70.68 70.44 71.17 70.93 69.89 69.42 69.19 69.30 69.54 70.31 70.85 71.20 70.88 71.02 70.47 70.72 70.34 69.76 69.39 66.07 64.91 64.89 65.44 73.53 73.86 73.74 73.86 73.74 73.42
69.38 68.95 71.86 73.82 74.02 73.80 73.77 73.57 73.07 72.85 72.55 72.65 72.58 72.03 71.61 72.01 71.86 71.62 70.57 70.31 70.23 70.67 71.04 71.11 71.24 70.99 70.58 70.44 70.58 70.87 70.26 70.20 68.45 66.63 66.06 66.52 65.85 72.58 74.03 73.33 73.31 73.70 73.67
69.30 69.46 70.99 73.47 74.06 73.81 73.75 73.60 73.02 72.87 72.77 72.70 72.72 72.58 72.43 72.33 72.25 71.67 71.25 71.02 71.27 71.34 71.19 70.79 70.70 70.68 70.68 70.02 70.44 70.71 70.97 69.74 67.78 66.13 66.59 66.54 70.60 72.60 72.82 73.10 73.10 73.17 73.42
70.46 70.41 70.82 71.18 72.73 74.26 73.71 73.29 73.19 72.76 72.61 72.63 72.29 72.22 72.52 72.67 72.51 72.31 72.29 72.32 71.71 71.15 70.46 70.12 69.58 69.38 70.14 69.90 69.95 70.53 70.51 69.53 66.19 64.93 65.08 65.37 71.26 71.75 70.94 71.37 72.08 72.56 72.70
70.05 71.04 70.43 70.56 70.30 71.09 71.77 73.90 73.44 73.10 72.92 72.69 72.67 72.53 72.62 72.73 72.68 72.53 71.77 72.04 71.07 70.36 69.72 69.50 68.35 68.21 68.55 69.96 70.27 70.43 69.67 69.59 66.21 65.62 64.73 64.18 71.49 71.51 70.21 70.54 71.33 72.18 72.26
68.63 70.87 70.60 70.24 70.04 69.73 70.18 72.52 73.43 73.84 73.31 73.05 72.90 72.83 72.01 69.53 69.21 69.66 70.91 71.40 70.94 70.24 69.77 68.97 68.29 67.53 67.68 68.31 69.02 69.58 69.63 65.73 65.53 65.35 64.83 67.40 71.41 71.44 70.26 71.03 70.98 71.84 71.79
58.18 69.78 70.69 70.51 70.14 69.58 69.89 70.09 71.30 71.66 71.62 71.71 71.35 70.89 69.87 67.86 65.14 67.39 69.31 72.16 70.61 70.90 70.21 68.82 67.85 67.29 67.15 64.49 64.86 68.09 66.53 65.83 65.10 63.79 64.03 68.97 70.77 71.20 70.39 70.31 70.58 71.19 71.56
58.36 65.00 70.44 70.49 70.59 70.06 69.46 69.51 70.54 70.37 70.89 71.17 69.97 68.87 68.61 67.24 66.04 66.78 65.27 67.61 65.96 69.16 64.64 65.89 64.85 64.77 64.75 64.41 63.74 63.95 66.33 65.48 65.23 64.51 64.94 69.23 70.47 71.40 70.31 69.96 69.82 70.22 71.37
58.44 58.52 69.88 70.74 70.43 69.86 69.29 68.89 69.58 69.20 69.47 69.57 69.35 67.83 67.84 66.79 66.29 65.03 64.85 65.07 64.27 63.68 62.95 63.13 63.30 63.39 64.25 64.97 64.55 64.48 66.14 65.06 65.75 65.05 63.50 70.32 70.25 71.08 70.20 69.69 69.61 69.73 71.00
58.35 60.49 66.74 70.27 70.50 69.95 67.78 69.16 69.42 68.75 68.93 68.71 68.61 68.10 67.11 66.77 64.59 64.32 63.91 64.39 64.34 64.19 63.94 64.01 63.14 63.90 64.52 63.44 62.83 63.06 63.55 64.27 65.52 64.46 65.06 70.02 69.68 69.74 69.90 69.77 69.58 69.76 69.57
58.99 59.85 64.54 68.34 70.02 69.48 68.22 68.92 69.33 69.24 68.85 68.46 68.31 68.28 67.49 66.11 64.31 64.92 65.45 65.07 63.90 64.58 63.90 63.50 63.34 63.28 62.15 62.22 62.99 63.27 62.97 63.14 63.86 63.62 66.07 66.70 69.14 68.97 69.58 69.35 69.45 69.68 69.60
60.80 60.89 65.36 66.43 68.07 68.65 68.30 67.09 69.02 69.32 69.06 68.28 67.10 68.05 68.00 66.26 65.08 65.69 64.65 64.01 64.77 64.52 63.88 63.33 63.24 63.10 62.42 62.34 63.66 62.48 62.65 64.11 63.70 63.60 64.81 64.17 65.54 68.76 68.94 68.82 69.88 69.61 69.95
60.85 61.55 64.28 68.86 68.14 68.40 67.76 68.30 68.04 68.77 68.24 67.62 66.90 68.24 67.90 66.37 66.18 65.51 64.30 63.77 65.26 64.98 64.49 63.07 62.14 62.03 61.58 61.13 61.36 61.68 61.62 61.71 63.47 63.49 63.14 63.60 63.35 64.28 67.68 68.59 69.26 69.90 69.98
61.75 60.80 64.74 67.00 68.31 68.41 67.83 67.48 68.55 67.81 66.64 66.20 65.36 65.73 67.68 67.49 67.42 65.04 64.32 63.59 65.15 64.48 63.82 63.19 62.89 61.93 60.71 60.81 60.96 61.03 60.95 61.42 62.14 62.86 62.13 63.15 62.01 63.33 64.18 67.69 68.25 69.41 70.18
60.12 63.22 64.07 64.96 68.89 69.24 69.83 68.13 68.22 68.15 65.85 65.78 64.87 64.94 66.32 66.97 67.06 65.62 64.80 64.22 64.56 63.56 63.21 62.57 61.50 61.57 60.83 60.49 62.13 62.11 61.12 61.42 62.57 61.86 62.80 62.90 61.64 62.88 64.25 64.14 64.66 66.45 69.64
59.97 62.29 63.89 66.29 69.01 70.18 69.31 68.27 66.77 65.98 64.62 64.54 65.08 66.25 66.54 66.48 66.31 64.94 64.08 64.17 63.80 62.40 61.77 61.40 60.86 60.21 59.07 59.85 57.80 57.64 58.96 60.52 60.50 60.46 60.67 61.17 62.62 62.10 62.18 63.84 64.40 64.93 65.71
59.84 64.38 66.59 68.65 69.76 69.67 69.55 68.17 66.83 65.41 64.14 64.15 65.12 64.66 65.58 64.97 64.83 65.11 63.93 63.88 62.34 61.55 61.22 60.46 59.98 58.44 58.40 58.67 56.06 57.32 55.20 56.54 58.62 60.35 60.10 60.56 60.20 60.83 62.23 64.21 64.14 64.12 63.84
65.03 66.25 68.09 69.66 69.15 68.40 69.07 68.69 66.44 64.21 63.88 63.14 63.24 63.97 64.47 65.30 64.79 64.03 63.06 62.65 62.00 61.62 60.11 59.61 59.75 58.49 55.80 57.40 57.82 55.74 54.42 52.61 53.92 57.08 59.40 61.04 59.53 61.18 61.56 62.28 64.52 65.49 65.63
65.07 66.53 66.63 68.52 68.66 68.84 68.56 66.83 64.87 62.41 61.09 61.89 61.65 63.20 64.45 64.33 64.17 63.67 63.09 62.40 61.68 60.70 59.84 59.75 60.67 58.56 57.50 55.50 57.24 59.66 58.79 58.39 53.34 51.69 56.56 58.46 60.35 59.66 60.51 61.30 61.81 64.27 64.45
65.01 64.89 65.85 67.99 67.51 68.23 67.02 65.01 62.66 61.87 62.33 62.65 62.45 61.78 62.17 62.15 62.97 63.25 62.70 62.03 61.07 60.75 60.04 59.99 59.37 58.91 58.40 56.86 56.28 56.34 57.36 58.49 58.26 55.70 51.21 54.59 58.45 61.37 60.81 61.05 61.12 62.56 65.69
65.34 66.14 67.11 66.78 66.12 65.86 65.45 63.68 62.35 62.39 61.65 61.35 60.75 61.12 61.81 61.51 61.45 61.52 62.16 61.25 60.80 60.47 60.48 60.45 59.65 59.17 59.76 58.72 57.52 57.22 55.90 55.29 56.46 55.17 52.69 53.28 55.07 56.96 59.31 60.80 60.59 61.68 64.46

GFSSE_sfc_wetblb_021.txt.gz
Wetbulb
66.87 71.49 75.48 74.91 74.01 73.58 72.94 71.97 71.79 71.67 71.19 70.98 69.85 68.88 68.66 68.54 67.86 66.77 66.37 66.26 65.96 65.83 66.02 65.67 65.30 65.28 65.17 64.96 65.21 65.40 65.37 64.85 64.93 66.13 67.55 69.85 71.41 72.60 73.04 73.94 74.37 73.46 74.71
68.23 72.33 75.48 74.96 74.16 73.20 72.94 72.14 72.03 71.97 71.40 70.91 69.71 68.68 68.15 67.60 67.07 66.62 66.29 66.05 65.97 65.87 65.87 66.20 66.16 66.08 65.68 65.50 65.77 65.81 65.73 65.67 65.57 65.34 65.67 66.50 67.78 69.84 72.52 73.17 73.09 73.12 74.51
68.81 71.99 73.62 74.66 74.11 73.66 73.09 72.57 72.10 71.80 71.30 70.80 69.55 68.52 67.86 67.71 67.04 66.88 66.59 66.27 66.05 66.34 66.70 67.15 67.46 67.62 67.41 66.85 66.70 66.43 66.38 66.43 66.27 66.05 65.69 63.10 64.23 67.06 68.50 72.87 73.35 73.56 74.36
70.05 71.57 72.02 74.43 74.09 73.81 73.29 72.70 72.13 71.56 71.28 70.43 69.60 68.75 68.20 67.99 67.70 67.46 67.03 66.90 66.80 67.26 67.60 67.55 67.47 67.63 68.07 68.60 68.50 68.14 67.64 67.75 67.64 67.55 64.36 64.50 64.24 67.27 68.52 72.09 73.22 73.18 73.84
69.89 71.26 71.07 74.16 73.99 73.72 73.34 72.65 71.98 71.73 71.49 70.86 69.92 69.47 68.84 68.52 68.69 68.05 67.78 67.60 67.51 68.03 68.29 68.53 68.66 68.66 68.71 69.06 70.27 69.72 69.16 68.65 68.42 67.24 63.84 62.73 61.90 65.91 69.34 69.81 73.99 73.66 73.44
69.67 70.50 72.12 73.74 73.84 73.54 73.34 72.75 72.06 71.86 71.63 71.26 70.68 70.35 69.78 69.27 69.77 69.24 68.28 68.48 68.46 68.96 69.46 69.46 70.00 69.81 69.83 69.69 69.73 70.44 70.62 69.97 69.50 65.77 64.46 64.55 65.40 67.99 71.22 74.02 73.97 74.29 72.95
68.58 69.46 70.93 73.74 73.71 73.62 73.32 72.92 72.20 71.91 71.61 71.41 71.26 70.76 70.41 70.40 70.23 69.41 68.99 69.11 69.08 69.45 69.56 69.97 70.02 70.68 70.77 70.49 70.42 70.37 70.35 70.69 67.97 66.53 65.61 65.07 64.91 68.81 72.21 74.28 74.16 74.09 73.84
68.04 68.61 70.20 73.37 73.52 73.37 73.07 72.72 72.06 71.86 71.71 71.68 71.49 71.44 71.24 71.00 70.70 69.83 69.61 69.72 69.67 69.71 70.18 70.56 70.91 71.14 71.34 70.82 70.50 70.43 70.55 70.57 68.52 66.20 65.80 64.90 66.61 69.38 71.39 73.14 73.44 73.34 73.34
67.28 67.70 69.49 70.70 72.00 73.54 72.97 72.47 72.20 71.88 71.68 71.63 71.55 71.48 71.61 71.63 71.53 71.14 70.90 70.26 70.23 70.55 70.92 71.07 71.22 71.00 70.60 70.35 70.28 70.08 70.11 70.23 67.01 65.13 65.00 63.40 66.76 70.03 71.81 72.56 72.87 72.87 73.22
64.88 66.38 68.01 69.07 69.84 69.77 70.59 72.84 72.32 72.22 71.80 71.62 71.67 71.70 71.72 71.99 71.96 71.86 71.25 71.29 70.70 71.14 71.60 71.53 70.87 70.09 69.74 69.42 69.37 69.42 69.60 69.91 66.53 65.34 64.64 63.89 67.65 68.85 71.18 71.59 72.08 72.67 73.12
65.86 64.47 66.50 67.62 68.11 68.11 68.67 70.50 72.41 72.57 72.29 71.96 71.67 71.89 70.87 69.16 69.49 69.37 70.67 70.51 71.02 71.70 71.50 71.25 70.60 69.76 68.77 68.43 68.31 68.62 69.01 65.70 65.26 64.92 64.72 67.02 68.33 68.63 70.26 71.18 71.10 71.88 72.30
64.85 65.26 66.69 66.46 66.66 67.07 67.69 67.37 69.65 69.42 69.43 69.56 68.92 68.55 68.63 66.95 67.17 68.67 69.61 70.81 70.77 71.69 71.30 71.03 70.42 69.18 68.23 63.36 63.42 66.93 64.80 65.22 64.79 64.59 64.42 68.36 68.74 68.51 68.99 70.09 70.17 70.29 71.34
65.27 66.16 67.04 66.83 65.50 66.08 65.82 66.12 68.61 68.48 68.40 68.59 67.60 66.86 67.01 67.31 66.79 67.69 65.41 66.73 68.05 70.91 68.10 68.23 67.40 66.39 63.29 62.67 62.80 62.48 63.05 64.18 64.26 64.65 66.02 68.43 68.52 68.47 69.09 69.95 70.20 70.35 70.47
58.79 65.25 67.32 67.41 66.68 64.96 65.21 65.29 66.27 67.33 67.27 67.62 67.98 67.15 67.37 66.22 64.18 63.60 63.60 63.21 65.93 65.95 65.91 64.05 63.45 62.67 62.40 63.10 63.04 62.99 62.69 62.62 63.61 64.51 64.96 68.22 68.39 68.60 69.09 69.61 70.17 69.41 70.69
54.19 60.10 65.86 67.72 67.16 66.44 64.13 64.07 65.38 66.52 66.16 66.78 67.42 67.74 67.51 65.82 64.58 62.54 62.37 62.64 63.22 63.55 63.63 62.30 61.02 60.92 61.16 61.73 62.48 63.00 62.99 62.99 64.66 63.97 63.50 67.48 68.46 69.05 69.01 69.60 70.36 69.71 69.28
56.57 55.65 63.46 67.21 67.55 67.34 65.72 63.73 64.43 65.91 65.79 66.44 67.28 67.35 67.11 65.56 63.74 62.78 62.17 62.59 62.12 62.16 62.28 61.94 61.31 60.89 61.31 61.61 61.82 62.24 61.98 61.79 63.17 63.61 63.56 63.23 67.48 68.99 70.14 71.28 70.04 69.00 68.92
57.35 57.57 58.92 66.22 67.50 67.04 66.57 65.65 65.05 65.10 65.50 66.15 66.88 67.31 66.75 65.09 63.83 63.30 63.17 62.79 62.28 62.50 62.02 61.31 61.42 61.15 60.61 60.80 61.04 61.45 61.17 61.40 61.50 61.79 61.85 63.77 64.02 69.00 68.95 69.21 69.45 69.51 69.01
56.35 55.69 56.21 64.96 66.69 66.96 67.00 66.61 66.11 66.22 65.55 65.59 66.41 66.57 66.24 65.70 64.82 63.86 64.13 63.43 63.56 62.36 61.80 61.08 60.84 60.68 62.00 59.75 59.27 59.75 60.35 60.81 61.23 61.61 61.77 62.18 63.29 64.86 67.82 69.21 69.62 69.81 69.43
56.55 56.64 55.48 60.54 65.55 66.59 66.89 66.42 66.01 66.15 66.28 65.83 65.64 65.74 65.95 65.83 65.04 64.39 63.46 63.00 62.86 62.23 61.46 61.22 60.36 59.65 58.55 58.49 59.65 59.45 59.37 59.69 60.01 61.18 61.22 61.08 62.21 63.95 62.53 66.89 68.38 68.11 68.74
55.25 55.49 55.88 61.10 64.99 66.16 65.85 63.71 64.25 64.85 65.86 65.39 65.81 65.99 66.14 65.68 65.49 63.96 63.91 62.88 62.33 61.93 61.39 60.68 60.72 59.48 59.50 58.23 59.66 59.96 58.91 59.23 59.73 59.59 60.10 61.00 61.28 62.39 62.14 61.80 62.76 64.86 67.69
55.22 55.20 55.78 60.64 62.16 64.51 63.92 63.55 63.43 64.63 64.46 64.70 65.75 66.37 66.17 65.57 65.44 65.17 63.14 62.18 62.06 61.98 61.51 60.75 59.61 58.71 58.82 60.22 58.25 55.46 56.28 57.93 58.81 59.87 60.03 59.80 60.41 61.09 61.28 61.47 61.50 62.86 63.45
55.87 55.45 55.37 58.98 62.18 64.24 65.14 65.28 63.78 65.12 63.00 63.13 64.66 65.74 66.06 65.94 65.70 63.95 62.72 61.91 61.83 60.96 60.25 59.23 58.47 56.83 57.39 58.05 54.52 53.28 51.64 54.14 57.48 59.44 60.09 59.57 59.48 60.51 60.74 61.74 61.96 61.96 62.01
53.92 54.66 55.54 58.66 63.34 64.00 63.85 63.66 62.31 62.08 62.21 61.04 62.57 63.45 64.26 64.75 64.51 63.68 62.81 62.05 61.20 60.50 59.29 58.23 57.63 57.09 55.92 54.94 55.19 53.67 50.00 49.05 54.02 57.67 59.39 60.21 59.28 57.88 58.96 59.47 61.15 62.22 62.76
53.85 53.65 56.23 60.07 63.69 64.48 64.60 63.62 63.25 61.51 61.49 60.18 62.88 61.59 62.20 63.90 63.64 63.35 62.44 61.52 60.83 59.63 58.47 57.95 58.57 57.19 55.90 54.28 54.46 56.14 54.37 53.90 52.15 51.67 56.58 58.74 59.72 57.87 57.71 59.45 60.04 61.54 62.58
53.47 60.21 62.80 64.49 64.94 65.13 64.21 63.89 62.18 60.33 59.79 60.65 61.52 60.86 62.40 61.33 62.65 62.69 62.60 61.75 59.64 58.75 58.30 58.28 58.13 57.05 56.66 55.48 54.14 53.48 53.66 54.28 55.76 54.16 52.34 54.14 57.75 57.05 57.16 58.16 59.06 59.80 61.74
64.25 64.45 64.84 65.01 64.26 64.32 63.97 62.42 62.08 60.33 60.42 60.39 60.27 59.65 59.50 59.33 60.88 62.51 61.26 59.97 59.12 58.34 58.62 58.70 58.22 57.60 57.03 55.84 54.78 54.28 54.18 53.20 54.36 55.36 53.53 51.70 53.35 55.32 58.83 58.29 57.73 58.63 60.22

GFSSE_sfc_wetblb_024.txt.gz
Wetbulb
65.57 72.11 75.91 75.19 74.34 74.41 73.93 72.78 73.03 73.08 73.14 72.82 72.44 71.79 71.45 71.48 70.34 69.61 68.69 67.71 67.42 66.84 66.33 65.74 65.64 65.79 65.65 65.80 65.72 65.76 65.59 65.07 65.36 66.41 67.74 69.32 70.74 72.38 72.65 72.71 73.09 72.96 74.51
67.02 72.94 75.65 75.11 74.44 73.86 73.70 73.25 73.01 72.64 72.39 71.77 71.25 70.60 69.91 69.15 68.24 67.81 67.02 66.67 66.64 66.73 66.53 66.24 65.98 65.90 65.53 65.88 66.07 65.92 65.76 65.63 65.41 65.08 65.41 66.61 67.55 68.85 71.84 72.98 73.03 73.34 73.44
68.11 72.45 73.84 74.86 74.51 73.99 73.59 73.09 72.89 72.45 71.90 71.17 70.54 70.06 69.45 69.29 68.16 67.47 67.49 66.75 66.53 66.48 66.68 66.99 67.23 67.23 67.07 66.78 66.43 66.16 66.29 66.37 66.08 65.95 65.45 65.35 65.09 66.88 67.68 72.20 73.14 73.68 74.06
69.59 71.80 72.35 74.76 74.34 74.21 73.66 72.99 72.75 72.25 71.73 71.17 70.53 70.16 69.63 69.51 69.04 67.44 67.07 66.86 66.66 66.79 67.20 67.47 67.42 67.57 67.72 68.05 67.78 67.50 67.26 66.98 66.90 67.12 65.96 65.89 64.85 66.60 68.36 68.98 73.15 73.60 73.53
69.51 71.38 71.38 74.71 74.16 74.29 73.67 72.92 72.38 72.08 71.68 71.18 70.85 70.39 70.16 69.78 69.57 68.92 67.72 67.28 67.31 67.74 67.90 67.74 67.77 67.87 67.97 68.68 69.35 69.20 68.92 68.28 67.81 67.13 65.82 65.13 64.46 65.88 69.30 70.16 72.53 74.20 73.59
69.09 70.54 72.11 74.21 74.09 73.96 73.89 73.09 72.50 72.13 71.93 71.48 71.20 70.97 70.65 69.98 69.90 69.56 68.32 68.13 68.15 68.37 68.75 68.61 68.97 69.05 68.87 68.93 69.20 69.77 70.70 70.09 69.43 67.55 66.61 66.18 67.18 67.72 69.97 72.24 71.27 73.94 73.57
68.67 69.62 70.87 74.23 73.91 73.89 73.92 73.24 72.65 72.38 71.91 71.56 71.46 71.00 70.60 70.54 70.13 69.25 68.59 68.63 68.91 69.27 69.50 69.65 69.84 70.28 70.32 70.51 70.39 70.39 70.00 70.40 69.66 68.24 67.53 67.26 66.77 68.20 70.37 73.33 73.36 73.22 73.59
68.19 68.75 69.56 73.67 73.69 73.71 73.47 73.05 72.47 72.08 71.88 71.64 71.39 71.26 70.96 70.80 70.50 69.61 69.15 69.21 69.30 69.60 69.71 69.82 70.01 70.57 71.46 70.77 70.87 70.41 70.45 70.28 69.64 68.16 67.86 67.17 66.92 68.89 71.02 73.54 73.47 72.89 73.34
67.64 67.66 68.13 71.07 72.22 74.04 73.29 72.75 72.20 71.95 71.85 71.44 71.24 71.22 71.24 71.14 70.97 70.60 70.55 70.18 69.80 70.35 70.52 70.65 71.17 71.14 70.92 70.55 70.38 70.28 70.16 70.41 69.33 67.83 66.43 66.08 66.68 68.56 71.08 72.48 72.66 72.77 73.09
65.24 66.77 66.95 68.95 70.32 70.55 71.00 73.14 72.42 72.12 71.92 71.57 71.60 71.45 71.51 71.58 71.46 71.26 70.63 71.01 70.50 70.82 70.90 71.26 71.14 70.72 69.96 69.89 69.62 69.45 69.25 69.33 69.01 67.51 66.99 66.29 68.03 68.63 69.69 71.36 72.23 72.96 72.65
64.91 64.01 65.67 67.53 68.38 68.97 69.30 70.50 72.44 72.35 72.29 71.89 71.84 71.86 70.81 69.31 69.76 69.72 70.62 70.63 71.06 71.53 71.47 71.69 71.35 70.64 69.33 68.79 68.55 68.28 68.25 67.23 67.33 67.17 66.87 67.45 68.46 68.64 68.77 70.50 71.19 71.82 72.35
64.21 64.45 64.84 66.33 67.22 67.38 68.11 67.76 69.50 69.38 69.40 69.78 69.67 69.51 69.16 68.26 68.10 69.17 69.90 70.76 71.03 71.50 71.52 71.39 71.20 69.88 68.77 66.37 65.18 66.52 66.01 66.40 66.71 66.73 66.61 68.30 68.78 68.94 68.68 69.05 69.74 70.63 71.60
65.07 65.14 65.14 65.48 66.56 66.37 66.44 65.90 67.89 68.61 68.32 68.74 68.59 68.32 68.66 68.01 68.30 69.02 67.38 68.68 68.61 70.37 69.45 70.57 69.68 68.05 66.56 64.79 64.21 64.11 64.10 65.06 65.85 66.34 66.95 68.42 68.63 68.84 68.94 68.69 69.30 70.53 71.03
56.86 64.61 65.84 65.87 65.74 65.51 65.84 64.98 65.72 67.34 67.12 67.56 67.85 67.56 67.40 67.29 66.41 67.02 66.01 65.31 66.09 67.81 68.26 67.51 66.46 66.22 65.35 64.42 64.02 63.78 64.31 64.03 64.87 65.28 66.06 67.89 68.47 68.87 69.12 68.56 69.39 70.10 70.48
55.19 58.36 63.83 65.87 65.77 65.14 64.58 64.24 64.42 65.83 66.14 66.22 66.86 67.35 67.06 66.57 65.47 65.65 65.15 63.66 63.89 65.76 66.50 65.74 64.70 64.19 63.49 63.08 63.80 63.89 64.22 64.46 64.82 65.20 65.48 67.02 68.11 68.48 69.13 69.04 69.72 69.66 69.90
55.35 55.03 57.98 65.11 66.34 66.11 64.12 64.21 63.71 64.31 65.44 65.11 65.86 67.16 67.03 66.25 64.99 64.20 63.74 63.11 63.16 63.95 64.93 65.17 63.63 62.92 62.35 62.97 63.23 63.47 64.00 64.41 64.45 65.27 65.58 65.36 67.03 68.06 69.05 69.22 69.75 70.04 69.41
55.86 55.69 54.94 61.49 66.11 66.10 65.49 64.15 63.41 63.95 64.85 64.41 65.39 66.94 67.17 65.90 64.44 64.10 63.33 62.73 63.31 63.91 63.92 63.43 63.19 63.06 62.78 62.95 62.96 63.52 63.47 63.67 63.71 63.52 64.00 65.19 65.13 66.86 68.20 69.52 69.61 69.37 68.97
54.51 54.54 54.91 59.78 64.77 65.94 66.15 65.69 64.21 63.64 64.37 64.57 65.23 66.59 66.97 65.79 64.54 63.69 62.97 62.85 63.14 63.73 63.16 63.12 62.87 62.23 62.51 62.75 62.22 62.64 63.29 63.29 63.36 63.65 63.61 63.84 64.42 66.23 67.19 69.13 69.38 68.96 69.15
54.97 54.91 54.81 56.65 62.43 65.23 66.12 66.18 65.44 64.42 64.05 64.58 65.59 66.42 66.86 65.55 64.97 64.27 63.61 63.90 64.60 64.00 63.43 62.94 62.27 62.68 62.14 61.64 61.60 62.02 62.08 62.37 62.58 62.78 62.88 63.42 64.14 66.46 66.02 68.06 68.54 68.79 69.30
54.65 54.17 54.15 54.16 58.90 63.74 65.04 64.95 64.28 64.27 65.08 64.99 64.91 65.93 66.11 65.86 65.57 64.56 64.21 64.17 64.27 63.41 62.92 62.60 62.73 62.20 62.07 61.13 60.88 61.27 61.39 61.98 62.01 61.95 62.71 62.78 63.57 64.70 65.64 64.57 66.79 67.17 68.15
53.90 54.09 54.47 54.56 58.01 64.04 64.27 63.22 62.92 63.45 64.21 64.54 65.37 65.77 65.79 65.73 65.66 64.65 64.18 63.77 63.31 63.43 63.28 63.08 62.49 61.65 61.20 61.58 59.57 59.12 59.08 60.53 60.89 61.50 62.63 62.54 62.79 63.69 63.86 63.31 64.59 64.99 65.72
54.26 54.53 54.67 54.89 60.24 64.13 64.79 63.72 63.68 63.84 63.67 64.62 65.36 65.88 66.17 65.79 65.32 64.93 64.22 63.54 63.13 62.70 62.83 62.08 61.18 59.70 60.16 60.51 58.11 56.08 55.43 57.61 59.17 60.84 62.11 62.08 62.34 63.31 63.45 63.91 64.18 64.51 65.34
52.37 53.43 54.61 54.92 59.76 63.13 63.60 63.06 62.04 62.02 62.10 62.24 63.80 64.61 65.80 65.91 65.48 65.02 64.17 63.57 62.92 63.02 62.11 61.06 60.70 59.77 58.65 58.05 58.54 57.34 53.66 53.00 55.21 59.36 60.82 61.66 61.56 61.49 63.06 62.92 63.73 64.59 65.06
52.40 52.37 53.28 55.05 59.62 62.41 63.68 63.00 62.85 60.63 60.13 61.25 63.26 63.58 64.57 65.41 65.03 64.53 63.84 63.31 62.88 62.29 61.26 60.73 60.31 59.43 58.75 57.41 57.47 57.93 57.22 56.71 54.56 53.93 57.55 59.25 61.06 60.42 61.08 62.33 63.38 64.15 64.77
51.85 51.09 52.84 56.69 61.82 63.13 63.33 62.99 62.05 60.90 60.08 61.80 62.31 62.57 63.12 63.32 64.25 63.78 63.24 63.13 62.64 61.67 61.05 60.30 59.79 59.23 58.71 58.51 57.31 56.36 56.86 56.90 58.12 56.68 54.04 55.84 58.41 59.33 60.91 61.59 62.80 63.40 64.40
63.05 62.60 63.25 62.87 62.78 63.09 63.33 62.36 61.23 60.53 60.83 60.97 61.13 60.99 60.91 61.37 62.20 62.85 63.09 62.52 61.33 60.82 60.09 60.18 60.40 59.60 59.27 58.61 57.91 57.21 57.16 56.56 56.33 57.42 55.42 54.02 55.32 58.43 60.58 61.74 61.86 62.58 63.81

GFSSE_sfc_wetblb_030.txt.gz
Wetbulb
71.72 75.33 76.42 76.47 76.34 75.84 75.15 74.93 75.42 75.99 76.21 76.41 76.21 75.91 75.26 74.69 74.29 73.61 72.47 71.63 71.82 70.32 69.34 68.65 68.08 67.69 67.40 67.10 66.78 66.30 66.11 66.19 66.63 67.82 69.26 70.91 71.89 72.88 72.43 73.43 73.82 74.41 74.68
73.13 74.45 75.99 76.04 75.97 75.84 75.41 74.73 74.56 74.96 75.19 75.39 75.61 75.04 74.47 73.64 72.81 72.43 71.77 71.02 70.79 69.29 68.47 67.70 67.00 66.89 67.10 67.15 66.95 66.72 66.48 66.07 65.64 65.33 65.78 68.31 70.17 70.26 72.25 72.35 73.08 73.90 73.48
73.28 74.13 75.70 75.57 75.64 75.77 75.42 74.84 74.39 74.24 74.29 74.42 74.54 74.32 73.57 73.19 72.45 71.44 70.78 69.79 69.18 68.30 67.68 67.37 67.05 66.90 67.09 67.36 67.40 67.32 67.27 67.03 66.76 66.46 66.07 66.14 70.61 69.56 69.83 71.81 72.89 73.38 73.32
74.42 74.58 73.09 75.29 75.14 75.44 75.24 74.79 74.47 74.29 73.99 73.89 73.82 73.67 73.22 72.95 72.31 70.64 69.39 68.56 68.26 68.24 67.96 67.81 67.90 68.10 68.24 68.10 67.89 67.70 67.64 67.59 67.32 67.62 67.60 65.42 65.04 67.62 68.67 69.58 71.17 73.32 73.44
74.78 75.01 73.21 75.11 75.01 75.11 74.91 74.51 74.34 74.19 73.99 73.79 73.84 73.37 72.90 72.30 71.27 70.51 69.84 69.57 68.39 68.16 68.38 68.75 68.59 68.48 68.56 68.90 69.06 68.91 68.44 68.05 67.91 68.34 68.46 67.69 65.94 67.51 69.05 70.34 71.63 73.07 73.70
74.39 74.74 74.60 74.76 74.99 74.71 74.69 74.27 73.92 73.72 73.54 73.37 73.20 72.70 72.15 71.54 71.05 70.61 70.39 70.17 69.07 68.49 68.99 68.88 68.67 68.90 69.03 69.46 70.07 70.40 70.68 70.10 69.85 70.69 70.23 69.02 66.42 68.80 69.21 70.71 71.83 72.33 73.84
74.06 74.77 74.82 74.79 74.94 74.81 74.64 74.24 73.67 73.30 72.80 72.47 72.27 71.94 71.77 71.47 71.08 70.71 70.52 70.08 69.73 69.29 69.45 69.52 69.58 69.84 69.61 69.71 70.01 69.95 69.99 70.13 71.56 71.51 71.15 71.03 68.31 68.38 69.45 70.87 72.00 72.96 72.89
73.50 74.59 74.40 75.06 74.76 74.41 74.32 74.07 73.34 72.80 72.45 72.08 71.78 71.70 71.65 71.45 71.14 70.89 70.83 70.34 70.64 70.92 70.38 70.24 70.34 70.62 70.69 70.74 70.89 71.01 70.62 70.64 70.97 71.11 71.28 71.77 69.11 67.82 69.42 71.60 72.47 73.78 72.78
74.49 75.08 75.01 74.76 74.54 74.48 74.21 73.77 73.29 72.60 72.21 71.93 71.54 71.56 71.61 71.54 71.27 71.12 71.04 71.06 71.06 71.35 71.68 71.50 70.93 70.83 70.74 71.24 71.10 70.68 70.36 70.40 70.94 71.25 70.76 71.15 68.95 67.29 68.86 71.41 71.61 72.29 72.25
74.35 74.54 74.33 74.82 73.67 73.08 73.07 74.03 73.41 72.84 72.60 72.00 71.81 71.86 71.69 71.76 71.47 71.07 70.72 70.90 71.32 71.59 71.64 71.54 70.99 71.17 71.47 70.78 70.31 70.02 69.74 69.61 69.10 69.83 70.89 71.60 69.16 68.04 68.55 70.19 70.47 71.10 71.33
72.01 74.17 74.76 73.94 74.27 73.26 71.49 72.56 73.72 73.34 72.91 72.52 72.06 72.03 71.49 70.14 70.48 70.14 69.83 70.94 71.59 71.69 71.47 71.32 71.27 71.41 71.19 70.33 69.72 69.28 69.01 69.40 69.58 69.38 69.59 70.60 69.53 69.00 68.54 68.82 70.04 69.87 70.12
70.32 72.20 73.88 74.91 74.17 73.99 71.27 72.47 73.24 71.64 71.56 71.31 70.72 70.48 70.32 70.26 70.72 69.58 70.32 71.34 71.71 71.71 71.32 71.37 71.46 71.60 70.73 70.83 70.83 69.15 69.54 70.21 69.60 69.18 69.39 70.11 69.01 69.55 69.39 68.89 69.36 70.21 69.90
66.27 67.48 72.02 74.47 74.83 74.15 72.95 71.89 71.92 72.36 72.25 71.79 70.91 72.49 71.89 70.21 71.02 69.94 69.84 70.26 70.68 71.17 71.38 72.01 72.09 71.58 71.43 70.75 69.92 69.84 69.80 68.86 68.88 68.84 69.81 69.04 68.91 69.40 69.55 69.40 69.30 70.03 70.31
65.75 66.88 68.72 73.76 74.71 74.88 73.77 72.73 72.67 71.96 72.58 71.48 71.25 73.45 72.09 71.48 72.09 70.87 69.37 70.32 70.18 67.96 70.45 71.84 71.09 72.18 71.81 71.06 70.52 69.82 69.73 69.44 68.96 69.50 70.81 68.89 68.62 69.01 69.11 69.17 69.43 69.70 70.32
65.81 67.53 68.64 71.67 74.37 74.84 74.84 74.21 73.98 72.83 72.48 72.91 72.04 72.68 72.48 70.58 71.96 71.02 70.92 69.73 70.49 70.01 69.64 70.82 70.94 71.53 71.55 71.24 70.58 69.83 69.52 69.65 70.00 69.64 69.86 69.50 68.67 68.91 69.43 69.75 69.72 69.57 69.88
66.41 67.37 68.83 69.48 73.65 74.84 74.78 75.17 74.56 74.88 73.95 73.13 72.34 71.99 73.22 71.41 72.50 69.95 70.72 69.55 69.62 69.84 69.50 70.32 70.51 70.93 70.01 70.65 70.25 70.45 69.98 69.78 70.17 70.12 69.73 69.61 69.20 68.84 68.60 69.06 69.43 69.84 69.79
66.59 68.31 69.56 70.70 72.08 75.02 75.18 74.69 74.39 73.63 73.45 72.48 72.58 74.41 72.49 73.44 72.97 71.92 69.57 69.32 68.60 70.17 71.22 70.16 70.87 70.51 70.05 70.02 69.86 69.89 70.59 70.22 69.91 70.11 70.15 69.46 68.85 68.57 68.50 68.87 69.15 69.17 69.66
67.75 68.06 69.30 68.26 68.95 73.32 75.45 74.29 73.09 72.67 72.70 72.41 72.39 72.65 72.61 72.78 72.96 72.32 69.28 69.15 69.06 69.97 69.29 68.42 69.66 68.97 69.18 69.18 71.34 70.61 70.16 69.53 69.86 69.98 70.01 69.73 69.08 68.67 68.66 69.38 69.04 69.66 69.81
66.86 68.00 68.63 69.78 69.07 72.28 73.15 72.41 73.70 75.26 72.87 72.14 72.26 72.40 72.65 71.97 71.86 71.27 69.63 69.09 72.18 68.71 68.23 68.42 67.96 68.60 68.19 69.02 68.69 70.65 69.69 68.89 68.84 68.97 69.34 69.25 69.85 69.40 68.57 69.44 69.01 69.60 70.09
66.01 69.24 70.93 70.36 72.49 71.58 70.43 72.21 71.37 71.87 72.11 72.12 71.85 71.99 72.50 72.14 71.51 71.12 70.13 70.36 70.57 68.09 67.74 67.52 68.37 68.96 70.16 70.40 68.53 67.83 68.13 68.16 68.20 68.11 68.50 68.99 69.16 69.58 69.72 69.43 69.20 68.16 69.18
65.70 69.32 70.23 70.50 73.86 70.17 68.15 68.78 70.16 70.09 71.41 71.36 71.48 72.44 72.20 71.73 71.12 71.09 70.15 69.87 69.63 68.47 68.41 69.03 68.07 69.33 70.07 70.03 67.43 66.01 66.25 67.66 67.86 67.54 68.11 68.47 68.37 68.83 69.00 69.69 68.65 69.95 68.28
66.58 68.82 70.55 70.76 71.61 70.60 68.93 71.37 71.48 71.81 71.73 71.91 71.66 72.08 72.26 70.61 71.59 71.11 70.86 70.24 69.74 67.64 68.67 69.11 69.59 67.75 69.11 69.44 65.53 64.30 60.58 62.88 65.76 66.39 66.98 67.27 67.87 69.05 68.46 68.99 69.07 68.86 68.76
64.77 67.79 68.28 70.01 70.96 70.94 71.03 70.94 72.01 72.28 72.21 71.10 71.19 69.92 69.86 71.51 70.93 71.18 71.16 70.91 69.84 68.59 67.09 68.99 71.34 68.80 68.32 66.47 67.55 63.78 59.73 57.75 61.35 64.82 65.17 66.18 67.63 68.69 69.26 69.08 68.34 68.99 68.69
62.73 64.73 66.37 68.28 68.66 68.64 71.08 72.68 73.07 70.29 69.03 70.16 70.89 69.64 71.11 71.08 70.68 70.51 70.15 70.99 70.07 68.24 69.94 70.61 70.77 69.01 68.68 65.57 65.37 65.10 65.62 63.78 58.88 59.37 64.45 65.21 67.29 67.50 68.41 68.65 68.69 67.96 67.17
61.92 63.32 66.16 67.37 70.11 69.81 70.93 73.10 71.33 71.35 71.08 71.28 70.79 70.81 69.49 70.32 70.21 70.33 71.34 70.40 69.53 69.18 71.32 70.10 69.99 69.54 68.26 65.50 64.14 63.40 63.50 62.79 63.73 60.93 59.90 62.44 65.24 67.03 67.71 68.73 68.69 67.75 66.53
61.82 62.72 66.56 69.78 71.09 69.85 70.49 71.63 72.36 72.04 72.12 70.88 71.11 66.68 67.67 68.46 69.45 70.81 70.51 70.91 71.32 71.49 71.18 70.18 69.66 69.03 67.72 66.08 64.92 64.49 62.72 61.33 60.92 61.84 61.47 61.87 62.47 64.36 66.67 67.53 68.94 69.64 67.63

GFSSE_sfc_wetblb_033.txt.gz
Wetbulb
72.89 75.23 76.75 76.67 76.04 75.79 76.62 76.72 77.22 77.39 77.17 76.92 76.97 76.77 76.39 75.84 75.12 74.18 73.50 72.56 72.31 70.97 69.85 68.73 68.38 68.17 67.66 67.18 66.51 66.44 66.53 66.67 67.28 69.02 70.63 71.83 72.99 73.09 72.58 73.26 73.80 73.78 74.24
73.27 75.26 76.39 76.32 76.07 75.53 75.97 76.62 76.84 76.91 76.86 76.91 76.71 76.31 75.79 75.31 74.34 73.66 72.75 71.61 71.39 69.89 69.14 68.30 67.44 67.03 66.73 66.44 66.13 66.03 65.79 65.03 64.72 64.93 66.68 70.27 72.01 71.78 72.59 72.42 72.86 73.63 74.51
73.79 75.22 75.59 76.07 76.19 75.53 75.33 75.79 76.06 76.33 76.45 76.53 76.24 75.81 75.04 74.52 73.66 72.68 72.07 70.92 70.26 69.45 68.34 67.25 66.69 66.72 66.65 66.65 66.64 66.69 66.42 66.25 66.13 65.71 65.04 66.81 72.40 71.83 70.79 72.06 72.71 73.21 73.93
75.21 75.14 72.93 75.94 76.04 75.89 75.14 74.71 75.14 75.36 75.73 75.78 75.68 74.96 74.22 73.67 73.21 71.99 71.08 70.40 69.51 68.57 67.86 67.41 67.27 67.45 67.72 67.55 67.40 67.32 67.19 67.25 67.54 68.12 66.14 62.68 63.94 71.34 70.10 70.24 71.23 72.82 72.99
75.02 75.12 73.81 75.74 75.69 75.87 75.44 74.79 74.37 74.36 74.64 74.89 74.84 74.39 73.89 73.39 73.19 72.27 71.17 69.92 69.07 68.71 68.46 68.40 68.47 68.35 68.32 68.32 68.19 68.21 68.01 68.05 68.67 68.89 68.30 66.50 65.66 70.12 70.68 70.18 71.94 73.01 73.16
74.71 74.92 75.43 75.19 75.36 75.59 75.59 75.12 74.66 74.27 74.09 74.27 74.17 73.87 73.54 73.27 72.53 71.58 70.81 70.52 69.67 68.96 68.98 69.29 69.08 68.86 69.13 69.27 69.72 70.28 70.49 70.36 70.73 71.53 69.92 68.76 66.44 69.14 69.62 69.98 70.92 72.02 73.48
74.17 74.98 76.16 74.91 75.11 75.24 75.34 75.04 74.79 74.54 74.16 73.97 74.09 73.74 73.17 72.60 71.86 71.21 70.85 70.26 69.82 69.75 69.54 69.54 69.34 69.38 69.25 69.38 69.27 69.67 69.93 70.19 70.62 70.51 71.06 70.51 69.38 69.36 68.91 69.92 71.21 72.05 72.75
73.08 74.63 75.97 75.05 75.19 74.94 74.84 74.52 74.24 73.81 73.81 73.79 73.39 73.20 72.60 72.10 71.76 71.31 71.08 70.75 70.68 71.06 70.84 70.22 70.04 70.19 70.25 70.26 70.81 71.24 71.27 71.07 70.90 70.65 71.50 71.92 69.69 69.05 68.88 70.37 71.70 72.73 72.79
72.54 73.86 75.68 75.97 74.57 75.01 74.51 74.04 73.69 73.29 72.87 72.62 72.23 71.93 71.96 71.93 71.66 71.34 71.21 71.15 71.22 71.31 71.63 71.68 71.11 70.82 71.03 70.98 70.96 71.26 71.28 71.08 70.62 70.40 70.95 70.77 70.20 68.99 68.54 71.22 71.54 72.73 72.44
72.00 72.93 73.93 76.38 73.54 73.11 73.21 74.39 73.84 73.26 72.77 72.30 72.08 72.11 71.86 72.01 71.71 71.51 70.97 70.97 71.63 71.78 71.96 72.05 71.46 71.28 71.09 71.56 71.22 71.00 70.32 70.18 68.93 68.87 70.03 70.65 70.48 69.42 68.37 69.84 70.78 71.77 71.91
70.48 72.60 74.11 74.82 74.67 73.17 72.00 73.13 73.87 73.59 73.14 72.50 72.35 72.20 71.56 69.27 69.75 69.37 69.31 70.84 71.84 71.91 72.13 71.98 71.49 71.49 71.59 71.51 70.83 70.36 70.08 68.82 69.42 69.74 69.53 71.17 70.69 69.32 68.34 69.54 70.46 70.65 70.75
69.49 70.95 73.31 75.66 75.17 74.51 71.92 73.37 73.18 71.54 71.45 71.25 70.46 70.96 70.39 70.15 70.06 68.65 69.75 70.90 71.54 72.08 71.96 71.86 72.03 71.76 71.47 70.20 70.75 70.16 69.19 69.78 70.06 69.44 70.12 71.22 70.58 69.92 69.19 69.05 69.99 70.33 69.89
69.03 70.30 71.63 76.90 77.52 76.14 74.15 72.49 74.11 73.44 72.65 72.31 72.21 71.72 72.22 69.88 70.72 70.11 70.10 69.32 70.35 71.24 70.26 71.22 71.33 71.11 70.47 70.46 70.43 70.80 70.37 69.88 68.78 68.61 70.62 70.29 69.41 69.31 69.72 69.69 69.64 70.10 70.64
66.81 67.65 69.19 71.80 76.82 77.58 74.89 73.10 72.52 73.00 73.96 72.43 72.30 73.34 72.07 70.83 71.39 72.00 70.29 70.17 71.39 70.14 70.62 70.82 70.64 71.19 70.76 71.98 71.06 69.81 69.81 69.72 68.97 68.78 70.72 70.23 68.88 68.59 69.28 69.64 69.81 69.94 70.39
66.85 67.99 69.01 70.94 76.79 77.11 77.57 74.53 74.55 74.20 73.65 74.08 73.05 73.74 73.31 71.28 71.63 70.82 71.92 70.63 71.25 70.07 69.73 71.33 71.57 72.03 72.31 71.29 70.44 69.92 69.85 69.78 70.00 69.32 69.90 70.58 69.62 69.21 69.52 69.81 69.62 69.71 70.01
67.62 68.10 68.70 69.61 77.62 77.18 76.94 77.81 77.57 77.01 75.35 74.70 74.31 75.03 74.29 72.59 72.54 71.81 72.29 71.34 71.26 70.91 70.72 70.72 71.40 71.59 71.01 71.32 70.58 70.32 70.18 70.04 70.18 71.78 68.65 69.49 70.22 69.86 69.62 69.56 69.81 69.98 70.09
67.40 68.93 72.29 72.71 74.98 77.90 78.10 77.92 76.31 74.12 75.06 73.64 74.06 76.76 76.45 74.61 73.87 73.28 72.28 71.09 71.09 71.82 73.27 72.57 73.16 71.75 70.78 70.70 70.92 70.85 70.45 71.03 69.61 70.83 69.52 69.66 69.28 69.75 70.00 69.87 69.51 69.82 69.97
69.87 70.02 72.56 69.29 72.47 76.87 77.44 76.85 75.36 73.74 72.91 73.00 73.53 74.51 76.28 76.08 75.13 74.54 71.37 71.54 72.18 71.51 71.11 69.58 69.58 68.60 70.21 69.47 70.15 69.52 69.93 69.93 69.97 70.06 68.13 69.44 69.69 68.50 69.38 69.77 69.38 69.69 69.74
68.96 70.21 70.86 72.74 70.07 75.53 76.88 74.25 74.64 76.06 73.43 72.82 73.21 73.17 76.17 75.46 74.67 74.10 72.45 72.19 73.77 71.08 70.42 69.35 69.53 69.96 68.83 68.73 68.45 69.31 70.58 69.55 69.15 68.17 69.60 69.05 69.73 69.82 67.63 68.62 69.38 69.50 70.11
70.11 71.84 72.44 71.40 73.62 75.87 73.30 75.00 71.27 70.87 72.41 73.42 72.85 73.23 76.04 75.00 73.85 74.49 72.79 72.86 72.88 70.44 69.65 69.28 70.04 69.28 69.22 68.36 67.99 70.19 69.46 69.76 69.14 67.87 68.81 68.05 67.49 69.61 70.26 68.41 67.36 68.10 70.11
69.13 70.63 72.16 72.03 74.23 72.28 68.91 68.32 68.25 67.88 71.03 72.35 73.14 76.01 75.55 74.48 74.29 74.11 72.14 72.83 72.45 70.45 70.46 71.19 70.03 70.29 68.11 69.99 67.56 68.22 68.24 69.74 69.37 67.90 68.26 67.53 68.76 68.42 69.13 69.36 67.99 69.06 67.94
68.29 69.45 70.86 72.09 73.57 73.92 70.36 71.39 70.02 72.33 71.15 72.40 73.26 75.22 74.63 73.57 73.69 73.29 72.89 72.50 72.23 69.99 72.04 71.68 70.57 67.10 67.40 70.11 66.66 65.77 61.50 63.02 66.43 66.95 66.93 69.40 68.16 69.47 67.99 68.28 68.95 70.13 69.98
67.17 68.82 69.26 71.22 72.75 74.04 73.22 72.59 73.92 73.63 73.97 72.15 72.85 72.36 73.04 73.03 72.78 73.12 72.28 73.09 73.22 71.28 68.69 71.11 69.66 69.41 66.97 68.81 69.08 64.89 59.98 59.04 63.39 65.68 66.55 66.10 67.73 68.24 68.84 69.55 68.78 69.23 67.34
66.20 67.36 69.53 70.62 72.70 73.76 75.76 71.57 73.79 70.80 69.86 71.04 72.69 72.75 72.38 72.88 71.35 72.00 71.62 71.51 71.91 70.51 71.08 69.73 70.27 70.37 70.24 67.09 66.95 66.69 67.09 64.72 60.03 58.98 65.27 66.39 68.54 67.73 68.87 69.32 69.41 68.72 68.25
65.07 67.13 69.07 71.24 72.57 73.23 73.97 72.65 70.59 72.68 71.34 72.30 72.37 72.66 72.73 72.50 72.13 70.88 71.43 71.28 71.06 70.52 71.46 71.27 72.18 71.64 69.51 67.18 65.56 65.09 65.20 63.71 64.11 60.56 58.94 62.87 66.20 68.09 69.03 69.19 68.94 69.25 68.87
62.98 63.15 67.43 70.51 71.40 72.79 73.40 74.05 74.90 74.87 74.32 72.16 72.30 70.12 70.64 70.21 70.36 70.41 70.61 70.98 71.84 71.24 73.22 71.70 72.35 70.64 69.53 68.97 66.05 66.18 63.61 61.88 61.46 61.48 60.10 62.72 63.26 65.42 67.15 64.89 69.20 69.13 67.39

GFSSE_sfc_wetblb_036.txt.gz
Wetbulb
71.98 74.33 76.58 76.08 76.01 76.93 77.28 77.61 77.68 77.61 77.18 76.85 76.71 76.68 76.45 75.93 75.43 74.83 74.15 73.47 73.11 72.41 70.59 69.42 68.95 68.60 68.05 67.40 66.98 67.16 67.47 67.49 68.01 69.80 71.63 72.94 73.66 73.61 73.57 73.82 73.53 73.55 74.44
72.65 74.21 76.41 75.85 75.73 76.73 77.08 77.41 77.40 77.45 76.92 76.78 76.95 76.70 76.19 75.70 75.23 74.73 73.63 72.69 72.16 70.97 69.46 68.69 68.18 67.68 67.14 66.82 66.69 66.57 66.13 66.03 66.01 65.42 66.85 70.59 72.11 73.33 73.37 72.82 73.13 74.00 74.34
72.46 73.84 75.18 75.53 75.43 76.33 76.80 77.07 77.14 76.94 76.92 76.77 76.72 76.27 75.60 75.25 74.48 73.83 73.01 72.17 71.60 70.02 68.85 67.80 66.82 66.72 67.05 67.18 67.30 67.20 66.67 66.56 66.62 68.01 67.48 63.53 71.16 72.55 72.93 73.05 73.03 73.46 73.80
72.37 73.27 73.24 75.75 75.35 75.68 76.30 76.54 76.58 76.53 76.63 76.66 76.26 75.79 75.30 74.78 74.01 72.96 72.25 71.67 70.81 69.10 67.82 67.23 66.70 66.75 67.07 67.33 67.29 67.35 67.24 67.19 68.08 68.59 65.78 62.02 67.86 72.60 72.10 71.68 72.09 72.97 72.76
72.82 72.22 73.84 75.90 75.43 75.48 75.50 75.91 75.88 75.98 76.20 76.23 75.81 75.40 74.95 74.30 73.71 72.86 72.21 71.41 69.99 68.70 67.97 67.55 67.65 68.14 67.96 67.88 67.89 67.83 68.20 68.84 69.56 68.94 66.98 65.14 64.48 71.52 72.03 71.34 72.09 72.99 73.04
73.52 72.38 75.21 75.72 75.60 75.40 75.13 75.08 75.04 75.33 75.56 75.53 75.37 75.10 74.47 73.86 73.43 72.74 71.89 71.35 70.80 69.15 68.82 68.88 69.10 68.94 68.67 68.83 68.97 69.71 70.43 71.11 71.53 69.64 70.73 66.59 66.44 71.19 70.42 70.65 70.71 71.85 73.60
73.37 73.02 74.65 75.37 75.47 75.63 75.55 74.93 74.60 74.42 74.49 74.77 74.77 74.45 74.05 73.58 73.18 72.24 71.55 71.18 70.95 70.79 70.07 70.28 70.17 70.07 69.88 69.39 69.60 69.60 69.83 70.41 69.73 67.96 69.46 69.46 67.34 70.26 69.58 69.88 70.70 71.62 73.17
72.75 73.90 74.96 75.03 75.22 75.19 75.25 74.83 74.23 74.02 73.87 74.02 73.93 74.00 73.71 73.33 72.59 71.85 71.30 71.23 71.01 71.01 71.24 71.20 70.95 70.91 70.72 70.47 70.33 70.94 71.25 71.05 69.70 68.40 69.33 69.29 69.56 70.73 69.37 69.45 71.77 72.77 73.38
72.87 74.64 74.44 73.71 74.63 75.25 74.82 74.51 74.24 73.88 73.81 73.66 73.51 73.39 73.30 72.78 72.00 71.50 71.36 71.10 71.22 71.11 71.37 71.52 71.44 71.55 71.53 71.58 71.28 71.38 71.45 71.23 69.63 68.28 68.51 69.14 71.20 71.06 70.01 70.46 72.20 72.67 73.75
71.54 74.03 74.96 74.14 72.93 72.58 72.99 74.54 74.11 73.80 73.38 73.03 73.06 72.92 72.38 72.14 71.97 71.68 71.00 71.18 71.06 71.40 71.70 71.80 71.80 71.80 72.05 71.75 71.87 71.89 71.11 70.48 68.51 66.99 66.62 68.86 71.37 70.59 70.09 70.70 70.81 72.83 73.32
70.02 71.50 75.40 75.24 73.35 71.61 71.14 72.83 73.91 73.85 73.52 72.81 72.65 72.38 71.46 69.60 69.30 69.34 69.93 70.04 71.23 71.55 71.85 72.17 72.27 72.19 71.99 72.07 72.45 71.82 70.81 67.88 66.81 67.13 67.54 71.36 71.32 70.38 69.77 70.24 70.86 72.48 72.71
69.16 71.03 73.60 75.13 72.94 71.67 70.76 71.25 72.42 72.31 72.12 71.70 70.82 70.32 70.08 68.56 67.84 68.14 69.21 70.27 71.06 71.80 72.02 72.16 72.18 72.13 71.80 69.56 69.63 71.23 68.88 67.45 67.15 68.23 69.34 71.90 71.67 70.34 69.25 69.55 70.53 71.44 71.84
69.19 69.23 72.65 75.06 74.25 72.79 71.68 72.39 72.31 70.81 70.48 70.58 69.91 69.24 69.44 68.43 67.70 68.10 66.97 67.62 69.76 71.11 69.71 70.62 70.73 70.37 69.22 68.78 68.29 68.77 68.14 68.10 67.81 66.74 70.44 72.17 71.92 70.98 70.32 69.54 69.87 70.56 71.74
66.89 66.35 72.21 75.71 76.09 75.59 74.20 73.68 73.13 71.86 70.83 69.75 69.47 69.22 68.47 68.07 67.48 67.46 67.21 67.80 67.64 68.31 67.72 68.01 68.40 68.81 68.80 69.41 69.02 69.77 68.96 68.18 67.34 67.42 70.54 71.72 71.06 70.42 69.67 70.13 69.96 70.26 71.30
72.31 72.45 72.23 75.89 76.06 76.70 77.48 75.91 73.72 72.78 72.25 70.97 70.48 70.02 69.08 69.12 67.26 67.45 68.46 68.39 67.59 68.25 67.71 67.50 68.37 68.89 69.45 69.52 70.02 69.15 68.60 68.57 68.82 67.97 69.15 71.33 70.57 70.22 69.37 69.23 69.57 70.08 70.28
71.81 76.02 73.00 73.60 77.21 76.71 75.81 76.11 76.80 74.41 73.35 73.37 71.78 71.32 70.11 69.14 68.76 68.62 67.81 68.49 69.48 68.56 68.56 67.62 68.58 68.69 69.71 70.35 69.93 69.97 69.37 69.05 68.97 69.37 68.71 69.45 70.31 70.41 70.67 70.23 69.96 70.01 70.05
70.50 73.15 72.86 73.90 78.24 76.66 75.72 76.05 75.35 75.88 73.84 73.93 73.11 73.60 71.55 71.03 69.83 68.59 69.06 68.32 67.90 69.99 69.21 68.02 68.17 70.33 70.58 69.97 68.92 69.74 68.70 69.49 69.18 68.97 69.80 68.38 68.58 70.32 70.45 70.39 70.62 70.19 70.23
69.79 69.49 70.73 68.25 72.47 76.31 75.84 75.81 75.52 74.37 74.26 73.99 73.47 74.38 74.60 72.04 70.64 71.07 69.45 69.28 69.80 68.58 68.95 69.40 68.01 68.06 68.00 68.13 68.37 67.66 69.27 69.17 68.95 68.64 68.57 68.66 68.39 67.21 69.02 70.16 70.29 70.74 69.95
70.39 71.52 73.06 73.74 73.35 76.42 76.88 75.72 75.49 74.82 74.46 73.48 73.66 73.52 74.90 73.89 71.97 70.66 70.86 70.63 70.44 69.67 69.13 67.67 68.06 68.42 67.03 68.30 67.35 68.61 69.14 69.14 68.91 69.48 68.24 67.52 67.51 67.93 67.59 69.12 69.72 69.92 70.25
71.58 72.12 73.20 73.74 74.77 75.37 75.34 74.67 72.61 72.28 71.96 72.62 72.26 72.30 74.74 74.06 73.40 71.84 71.37 70.70 72.55 68.91 68.25 68.65 67.08 67.33 67.33 67.63 66.75 66.96 69.27 68.63 68.47 67.87 66.97 67.19 68.07 66.19 66.99 67.58 67.43 67.41 69.09
70.77 71.11 72.51 72.39 72.50 72.64 71.89 70.32 69.45 68.70 69.04 70.45 72.48 74.14 75.32 74.68 73.49 72.65 71.19 72.07 70.19 69.87 68.17 68.80 67.97 66.85 66.88 68.02 66.39 65.68 67.58 67.63 67.64 67.30 67.01 66.94 66.83 67.18 66.74 66.78 66.70 65.12 66.36
69.33 70.25 71.37 72.36 72.97 72.38 70.61 69.97 70.07 70.31 69.35 69.86 72.42 74.13 75.09 74.92 73.41 72.87 72.16 70.64 71.01 69.79 69.00 69.25 67.47 65.80 67.20 67.60 64.46 65.03 61.75 63.29 65.56 66.69 66.75 66.64 66.38 66.40 66.81 67.18 66.18 66.20 65.81
67.86 69.53 69.61 69.85 70.47 70.85 70.42 70.97 71.66 71.97 72.19 72.28 73.36 73.64 73.95 74.12 73.68 72.80 72.02 71.23 71.23 69.65 68.34 68.59 68.47 66.40 64.50 66.75 68.10 64.72 60.15 57.65 60.48 64.53 65.51 64.88 64.84 65.92 65.62 66.25 65.84 65.74 66.50
67.42 68.61 70.83 70.73 69.46 69.97 71.93 70.34 70.08 67.94 67.37 70.13 73.64 73.00 72.92 73.33 73.13 72.59 72.00 71.13 72.01 69.70 69.19 68.47 68.44 67.33 66.51 65.81 66.84 66.68 65.02 63.55 58.38 57.37 62.22 63.11 64.17 65.16 65.32 65.38 64.88 66.40 64.19
63.61 63.91 65.54 66.60 68.80 69.91 70.52 70.24 69.26 70.85 70.97 72.82 72.94 74.10 72.44 73.16 72.41 71.34 71.65 70.89 71.62 69.56 69.32 68.10 68.23 67.36 67.42 67.31 65.48 64.58 64.20 63.04 62.55 59.01 56.34 59.45 62.93 63.73 65.76 64.87 65.20 64.90 63.85
63.29 65.04 66.22 68.21 68.48 70.72 70.59 72.13 71.47 70.66 69.85 71.34 72.99 71.08 70.91 70.79 70.63 69.97 70.86 70.09 70.13 68.98 69.68 69.06 68.33 68.74 68.45 67.32 65.57 64.75 63.01 61.06 59.88 59.65 58.71 58.71 59.32 61.94 63.61 64.16 64.38 64.58 65.36

GFSSE_sfc_wetblb_042.txt.gz
Wetbulb
69.14 73.51 77.31 77.64 77.41 77.23 77.23 77.26 76.98 76.77 76.42 76.35 76.15 75.90 75.63 75.28 74.95 74.66 74.24 73.99 73.66 72.86 71.71 70.78 69.43 68.34 67.57 66.95 66.75 66.37 66.51 66.72 67.59 70.33 72.50 73.43 73.39 73.96 74.05 73.71 73.43 72.72 74.26
69.29 73.34 76.88 77.28 77.51 77.44 77.34 77.18 76.98 76.49 76.32 76.50 76.12 75.77 75.32 75.02 74.41 74.18 73.79 73.41 72.88 71.15 69.92 69.27 68.80 68.20 67.31 66.31 66.08 65.67 65.32 65.15 64.76 64.69 65.59 70.26 72.30 72.93 73.10 73.42 74.15 72.89 73.21
69.99 72.62 75.28 76.60 77.44 77.41 77.01 76.95 76.54 76.23 76.24 76.24 75.94 75.54 75.34 74.95 73.81 73.07 73.09 72.66 71.62 69.97 69.48 68.99 68.08 67.61 67.51 67.17 67.10 66.52 66.23 65.86 66.04 65.83 65.13 61.53 66.18 72.59 72.95 72.56 73.66 73.36 73.24
70.98 72.05 73.04 76.73 77.01 77.23 76.98 76.67 76.26 76.06 76.13 76.21 75.86 75.59 75.29 74.99 74.01 72.69 72.06 71.54 70.47 69.86 69.10 67.97 67.93 68.00 68.02 67.95 67.89 67.70 67.16 67.06 67.48 67.84 65.12 64.17 61.80 72.71 72.72 72.81 73.01 72.21 72.49
70.44 71.14 72.00 76.50 76.60 77.08 76.82 76.36 76.03 76.11 76.03 76.03 75.91 75.69 75.26 74.84 74.27 73.39 72.54 71.88 70.55 69.54 68.48 67.94 68.04 68.56 68.67 68.40 68.38 68.10 67.96 68.57 69.62 69.86 66.78 65.04 62.70 72.17 72.62 72.91 73.08 72.46 73.36
70.17 70.45 73.49 75.82 76.22 76.49 76.64 76.31 76.18 76.13 76.05 75.92 75.96 75.63 75.26 74.64 74.02 72.91 72.40 72.14 71.32 69.46 68.74 68.58 69.32 69.19 68.95 68.92 68.78 68.83 69.40 70.79 70.49 67.50 66.80 67.17 66.13 73.04 72.51 73.45 73.38 72.96 72.79
69.02 69.97 73.07 75.57 76.02 76.27 76.64 76.44 76.18 76.05 75.84 75.82 75.83 75.50 75.11 74.50 73.59 72.81 72.45 71.64 71.25 70.89 69.89 69.72 70.46 70.70 70.58 69.99 69.29 70.07 70.25 70.13 68.95 67.94 67.10 66.99 66.78 72.58 73.05 72.44 72.84 73.26 73.21
68.37 70.15 71.80 75.01 75.49 75.71 75.96 76.05 75.79 75.66 75.66 75.64 75.54 75.24 75.05 74.27 73.64 72.96 72.42 71.92 71.64 71.67 71.32 71.18 71.35 71.09 70.92 71.16 70.92 70.89 70.10 70.89 70.01 68.02 67.29 65.95 67.38 72.29 71.77 72.18 72.05 72.25 72.94
69.08 70.33 70.86 72.06 74.02 75.51 75.35 75.33 75.35 75.14 75.22 75.17 74.92 74.77 74.58 74.09 73.41 72.93 72.37 72.15 71.63 71.83 71.45 71.45 71.51 71.26 71.04 71.09 71.21 71.35 70.99 71.41 69.05 67.87 67.95 65.66 70.42 71.60 70.74 70.89 70.95 71.94 72.60
69.61 69.51 70.51 70.97 71.72 71.81 72.73 74.96 74.80 74.59 74.56 74.32 74.45 74.31 74.20 73.87 73.33 72.70 71.46 71.40 71.41 71.53 71.53 71.63 71.75 71.38 71.33 71.39 71.53 71.87 71.21 71.43 68.43 67.04 66.03 64.60 71.06 71.06 70.47 71.32 71.33 72.44 73.04
69.77 69.48 69.62 70.81 70.99 71.06 70.93 72.38 73.72 74.51 74.26 73.95 73.82 73.85 72.62 70.96 70.61 70.20 70.61 70.61 71.09 71.26 71.48 71.56 71.68 71.60 71.42 71.54 71.39 71.45 71.43 68.46 67.49 66.08 65.06 67.74 72.00 71.58 71.25 72.30 72.52 72.87 73.51
68.08 68.59 68.70 69.08 69.95 70.41 71.33 70.49 70.45 70.81 70.81 70.52 70.34 70.11 69.94 67.74 67.53 68.76 69.56 70.81 70.99 71.26 71.33 71.45 71.64 71.83 71.20 68.57 68.46 70.83 69.08 68.65 67.17 66.07 64.51 69.25 72.39 71.97 71.60 72.22 72.34 72.79 73.09
69.37 70.00 68.89 67.66 68.15 68.64 68.80 69.64 70.20 69.96 69.65 69.50 68.73 68.30 67.44 66.86 66.57 67.93 65.68 68.00 66.77 69.92 67.71 69.47 69.39 69.60 68.14 67.69 67.49 66.50 67.37 68.01 67.01 66.01 65.93 70.55 72.20 72.58 71.68 71.39 71.65 72.89 72.84
68.76 71.05 70.88 69.84 67.96 66.16 66.52 68.03 68.42 68.45 68.68 68.30 68.34 66.97 66.45 65.04 64.13 64.00 64.15 64.55 64.62 65.64 65.76 65.89 66.61 67.96 67.17 67.22 66.99 66.22 65.74 66.52 66.27 66.15 65.18 71.26 71.67 72.22 71.89 71.15 71.14 70.97 71.80
68.85 71.16 71.62 71.31 69.21 68.41 65.83 67.17 67.53 66.96 66.74 66.90 66.91 67.02 66.66 65.30 64.13 63.56 63.90 62.73 63.40 64.30 65.83 64.99 64.85 66.70 66.88 66.70 66.51 66.20 66.07 66.47 66.76 65.79 65.53 72.07 71.54 71.70 72.04 71.15 70.44 70.84 71.04
65.01 67.10 69.71 69.10 68.68 69.41 67.46 66.97 67.27 67.57 66.99 65.75 65.79 66.22 66.45 65.40 64.04 63.46 62.56 62.59 62.55 64.24 65.48 64.82 63.95 64.77 65.32 65.39 65.41 65.85 66.26 66.28 65.74 64.70 66.55 69.58 71.29 71.27 71.36 71.28 70.77 70.31 70.23
64.44 65.04 67.54 66.36 67.31 67.43 68.51 67.81 67.81 67.97 67.79 66.87 66.46 66.38 66.37 65.33 64.56 63.18 62.54 62.30 62.69 63.46 64.29 64.46 62.49 63.58 63.95 65.14 65.19 65.62 65.60 66.12 65.62 64.71 65.70 67.15 68.93 70.65 70.60 70.77 71.48 71.00 70.29
64.44 63.11 65.75 69.40 69.75 69.64 69.40 69.49 69.29 68.97 68.58 68.22 67.55 66.92 66.66 66.16 65.07 64.13 63.04 62.33 63.22 63.63 64.13 64.14 62.79 62.53 63.62 64.11 64.72 64.95 65.83 65.64 65.42 65.31 65.88 65.94 66.01 66.51 69.50 70.27 70.74 70.33 70.79
61.73 63.61 65.93 69.08 69.97 70.19 70.49 70.62 70.52 70.19 69.28 69.15 68.81 67.95 67.45 66.81 65.82 65.15 64.33 63.89 62.85 64.20 63.81 64.09 63.49 62.57 62.84 63.45 63.78 64.89 64.68 64.90 65.30 65.97 64.94 65.99 66.12 65.79 65.63 68.68 69.72 69.57 69.74
60.75 61.21 61.86 68.77 70.12 70.32 70.74 69.90 70.03 69.28 70.37 69.52 69.32 69.32 68.48 68.01 67.46 65.36 65.66 64.54 63.82 63.98 64.29 63.65 63.61 62.95 61.70 63.41 64.76 65.41 64.55 64.89 65.39 65.60 64.71 66.30 65.16 65.66 64.23 64.43 66.88 67.23 68.96
58.83 59.98 59.97 60.97 68.10 69.64 69.61 69.23 69.07 69.23 69.29 68.03 68.38 69.01 68.95 69.55 68.41 66.71 66.23 65.25 64.93 63.92 63.88 64.29 63.11 62.69 61.91 62.86 61.76 60.77 62.84 64.48 64.53 64.82 65.01 64.35 64.13 64.35 64.27 65.16 64.50 64.52 64.99
57.23 60.38 61.35 62.57 65.25 69.59 70.17 70.18 68.31 68.94 65.64 69.11 68.98 67.96 68.23 69.12 69.73 68.33 66.74 66.05 65.72 65.23 63.34 63.76 63.49 60.87 62.42 62.92 60.24 61.38 59.32 59.97 60.97 63.26 63.61 63.69 62.98 63.17 64.05 64.28 64.17 63.85 64.04
55.87 59.86 61.64 63.28 65.03 68.43 68.25 64.74 63.17 62.72 62.25 62.55 63.06 63.03 65.15 67.16 69.80 69.07 67.68 66.71 66.77 66.38 64.61 63.75 63.91 62.25 60.53 61.77 62.62 61.12 57.95 55.59 56.16 59.28 60.99 61.51 60.71 61.22 61.64 63.15 63.57 63.89 63.41
56.92 59.71 61.79 62.80 63.22 63.68 62.02 62.95 62.43 63.00 60.72 60.66 60.39 62.58 64.37 66.79 69.09 69.51 68.21 67.47 67.31 66.61 65.15 64.33 64.04 63.69 63.22 61.98 63.34 63.78 62.03 59.73 57.08 54.78 58.79 60.47 59.88 60.64 60.82 61.71 62.08 63.58 63.45
55.46 58.48 60.80 61.96 61.82 61.79 62.50 62.39 61.82 58.97 59.89 60.42 61.18 62.11 63.58 66.41 68.78 69.48 68.69 67.54 66.57 65.89 65.03 64.79 64.24 64.07 63.74 63.08 62.31 62.06 62.13 61.39 60.25 57.70 55.38 54.66 58.08 59.30 60.18 60.95 61.00 62.00 61.94
53.29 56.87 58.75 60.24 61.84 62.03 61.36 61.13 60.51 59.85 60.77 61.45 61.73 63.16 64.27 65.57 66.79 68.70 68.65 67.81 67.02 66.84 65.39 64.98 65.59 65.28 63.81 64.02 63.10 62.50 61.44 60.21 58.49 57.26 52.69 53.02 54.38 56.27 59.03 59.98 60.30 61.27 61.43

GFSSE_sfc_wetblb_045.txt.gz
Wetbulb
67.58 73.75 77.29 77.44 77.19 77.09 77.04 76.76 76.43 76.43 76.06 75.98 75.74 75.69 75.39 75.24 75.31 75.44 75.19 74.84 74.89 73.75 72.81 71.29 69.97 68.87 67.94 67.19 66.99 66.65 66.79 67.76 69.63 71.78 73.08 73.47 73.52 73.85 74.06 73.76 73.08 72.88 73.43
69.05 74.48 76.84 77.26 77.24 77.09 76.91 76.71 76.34 76.10 75.85 75.78 75.56 75.33 75.11 74.94 74.69 74.42 74.14 73.50 73.34 71.97 70.95 69.54 68.54 67.83 67.24 66.41 66.07 65.49 65.03 64.68 64.61 64.86 67.70 71.05 72.43 72.86 73.00 73.02 73.34 72.68 73.30
69.19 74.39 76.16 77.05 77.26 77.04 76.76 76.58 76.10 75.90 75.77 75.63 75.31 75.21 74.86 74.49 74.14 73.72 73.37 73.05 72.11 70.43 69.68 69.08 68.29 67.38 66.87 66.58 66.28 66.16 65.96 65.77 65.45 64.68 64.69 60.90 66.59 72.66 72.85 72.87 73.16 72.39 73.29
70.09 73.83 75.20 77.10 77.08 76.99 76.63 76.22 75.90 75.85 75.72 75.58 75.25 75.26 74.88 74.46 73.89 72.92 72.52 71.98 71.07 69.92 69.51 68.83 67.86 67.62 67.31 67.32 67.09 67.25 67.22 67.11 67.14 67.60 63.81 62.85 61.77 72.35 72.46 72.87 73.16 72.33 71.72
69.63 72.92 74.29 76.87 76.83 76.94 76.61 76.00 75.74 75.65 75.62 75.47 75.40 75.23 75.05 74.46 73.91 73.12 72.45 72.19 70.77 70.16 69.21 68.49 68.25 68.32 68.27 68.06 67.52 67.08 67.36 68.28 69.47 69.57 67.06 65.50 62.87 69.04 72.42 72.83 72.74 72.32 72.92
69.15 71.13 75.14 76.38 76.68 76.63 76.53 76.05 75.67 75.55 75.65 75.47 75.52 75.34 74.95 74.60 73.88 73.14 72.55 72.27 71.73 69.95 69.05 68.72 69.38 69.20 68.80 68.55 68.33 68.08 68.61 70.21 69.79 66.75 66.42 66.88 61.66 69.79 72.54 72.70 72.70 72.53 73.12
68.17 69.52 74.21 75.90 76.27 76.48 76.51 76.23 75.82 75.62 75.41 75.49 75.52 75.44 75.07 74.59 73.85 72.97 72.53 72.12 71.63 70.73 69.60 69.59 69.84 70.55 70.36 69.14 68.72 69.03 69.89 69.55 68.38 67.42 66.45 66.21 66.13 71.45 72.60 73.16 72.97 72.68 72.97
67.36 69.52 72.97 75.63 75.96 75.95 76.13 75.90 75.46 75.28 75.38 75.36 75.38 75.21 75.11 74.59 73.72 73.02 72.36 72.03 72.07 71.35 71.14 70.80 70.82 70.87 70.80 70.41 69.61 69.99 69.87 69.98 69.74 68.03 67.20 66.00 66.99 70.63 72.33 72.96 72.50 72.43 72.40
67.23 69.57 71.29 73.17 74.98 75.85 75.54 75.38 75.37 75.04 74.86 74.86 74.78 74.68 74.77 74.34 73.71 72.84 72.18 72.03 71.98 71.66 71.48 71.38 71.32 71.07 70.85 70.29 69.99 70.26 70.07 70.58 68.35 67.82 68.17 65.69 67.99 70.42 71.70 72.40 71.41 71.73 72.78
66.30 67.87 69.23 71.20 73.20 73.50 73.80 75.37 75.31 75.20 74.77 74.57 74.66 74.48 74.59 74.38 73.70 73.10 71.71 71.92 71.96 71.74 71.79 71.47 71.66 71.46 71.11 71.09 70.81 70.67 70.61 70.93 68.01 67.28 66.67 65.02 68.35 70.75 71.00 71.97 70.93 71.95 72.36
67.49 66.98 68.40 69.41 69.57 69.82 70.43 73.78 74.94 75.27 75.17 74.65 74.56 74.48 73.56 72.16 71.46 70.82 71.17 71.15 71.96 71.66 71.66 71.68 71.70 71.70 71.35 70.75 70.31 70.67 70.97 67.66 67.57 67.30 65.76 67.69 68.96 70.75 71.48 72.02 71.69 71.90 72.18
65.74 67.02 68.40 68.83 68.85 68.67 70.15 68.95 70.03 71.89 72.86 72.68 72.54 72.36 71.79 69.10 68.31 69.58 70.45 70.92 71.66 71.51 71.46 71.46 71.57 71.69 70.82 67.37 67.84 70.20 67.79 67.64 67.82 66.94 66.00 68.48 69.50 71.17 71.92 72.41 72.00 72.00 72.38
66.05 67.22 67.79 68.08 68.31 68.06 67.81 67.73 67.77 68.24 68.42 69.55 69.01 69.30 68.69 67.31 67.61 68.58 66.16 67.84 66.67 69.84 66.43 69.00 68.36 68.72 67.19 66.75 66.66 66.10 66.62 66.51 66.91 67.12 66.87 69.26 70.85 71.87 71.91 71.36 71.77 71.67 72.45
66.67 67.21 67.67 67.11 67.05 67.07 65.91 67.28 67.90 67.43 67.02 67.18 67.59 66.42 66.41 65.57 65.03 65.48 65.06 64.59 64.75 64.61 64.73 64.80 65.40 66.37 66.57 66.37 66.44 65.94 65.66 65.24 65.46 66.05 65.49 69.04 70.60 71.89 72.31 72.33 71.06 71.41 71.94
67.53 68.16 68.28 67.64 66.59 66.18 65.17 65.18 66.22 66.94 66.38 66.25 65.97 66.19 66.31 65.25 64.07 63.68 63.94 62.76 63.16 62.94 63.78 63.84 63.82 64.77 65.85 65.83 66.01 66.31 65.78 64.63 65.38 65.64 64.49 68.61 70.24 71.80 72.03 71.98 71.30 70.58 70.92
68.31 69.38 69.59 68.65 67.78 66.73 66.03 64.98 65.81 66.33 66.18 64.85 65.60 66.33 66.07 64.96 63.63 63.10 62.36 61.90 61.35 62.73 63.50 64.00 63.57 63.53 64.50 64.70 65.00 65.64 65.38 64.63 64.97 65.40 64.96 65.43 70.57 71.32 71.17 71.53 71.58 70.50 70.26
67.81 70.46 69.91 69.30 69.15 68.55 67.59 66.34 65.91 66.39 66.37 65.41 64.76 64.98 65.90 65.22 63.33 62.80 61.54 61.53 61.78 61.95 62.34 63.15 62.03 61.96 62.04 62.88 63.10 63.94 63.97 64.61 65.16 65.18 64.24 65.45 67.70 71.07 70.59 71.00 71.09 70.71 70.70
62.51 63.74 69.42 70.82 68.37 67.37 67.16 66.90 66.77 66.96 66.77 66.24 65.72 65.18 65.43 65.16 63.75 62.21 61.82 60.91 61.58 61.79 62.38 62.94 61.77 60.89 61.50 61.77 62.19 62.98 63.81 64.46 64.83 64.71 64.44 65.14 66.40 67.28 69.20 70.06 70.41 70.06 70.16
61.76 61.96 61.73 65.02 65.23 64.77 65.89 66.93 67.43 67.38 67.25 67.27 66.81 66.11 65.76 65.56 64.75 63.75 62.57 61.97 61.17 61.86 61.99 62.40 61.46 61.33 60.34 61.06 62.15 62.76 64.37 64.10 64.70 65.46 64.49 65.09 65.75 66.63 66.24 67.88 69.49 69.50 69.92
59.96 61.26 60.54 61.91 65.22 65.42 65.78 65.97 66.88 67.67 67.99 68.28 67.65 67.16 66.52 66.26 66.06 64.16 63.92 62.47 61.65 61.95 61.84 62.07 61.87 61.49 60.43 61.61 62.93 63.38 63.37 63.96 64.59 64.35 64.41 65.10 65.75 66.61 65.93 65.42 64.99 66.70 69.16
58.83 58.60 59.04 58.84 62.70 66.16 66.38 65.87 66.79 67.08 68.43 68.48 68.32 67.90 67.31 67.08 66.72 64.67 64.40 63.50 62.54 61.97 62.41 62.49 62.14 60.82 60.25 61.28 60.66 59.82 61.16 63.02 63.40 63.94 64.05 64.16 64.60 64.51 64.21 64.56 64.05 64.00 65.26
56.89 57.82 59.36 59.55 60.96 65.59 68.42 68.51 68.55 68.43 69.05 69.20 68.89 67.86 68.26 68.06 67.60 66.35 65.13 64.58 63.41 62.78 61.44 62.82 62.17 60.06 60.61 61.41 59.54 58.86 57.34 59.53 60.75 63.11 62.59 62.92 62.70 63.28 63.73 63.94 63.38 63.51 63.35
54.63 54.57 57.13 59.24 60.00 61.23 68.32 68.56 62.54 63.17 62.52 65.11 64.83 65.73 67.33 68.22 68.55 67.76 66.42 65.51 64.20 64.15 62.59 62.50 63.03 61.54 59.49 60.74 62.07 61.11 56.10 55.68 55.58 57.61 59.76 61.16 61.06 60.77 61.60 62.34 63.02 63.33 63.28
52.16 53.64 55.34 58.39 60.63 61.69 66.05 67.56 67.04 66.63 65.68 62.26 65.58 66.67 64.76 66.31 67.28 68.43 67.67 66.14 65.29 65.05 63.92 63.22 63.99 62.92 61.81 61.39 62.75 63.29 62.32 60.48 56.83 53.72 57.62 58.63 59.65 60.37 59.52 60.05 61.11 62.36 62.83
50.71 51.79 55.12 57.23 59.02 61.66 65.00 67.16 66.59 63.90 62.04 59.87 58.48 59.71 61.39 62.11 65.27 67.83 67.57 66.36 65.63 65.89 64.62 63.74 62.77 62.94 63.98 63.31 62.99 62.14 61.93 61.17 60.59 58.32 54.51 56.34 56.90 58.06 59.10 59.60 60.00 60.51 61.94
49.68 49.53 52.26 56.15 58.42 60.03 61.83 64.34 64.60 65.04 59.84 58.96 58.82 59.31 59.81 61.95 64.84 66.40 67.25 66.51 66.31 65.93 64.52 64.55 65.24 64.75 64.04 64.02 63.33 63.09 62.01 60.72 59.50 57.91 56.48 54.09 52.96 55.17 57.88 58.66 58.95 59.63 60.47

GFSSE_sfc_wetblb_048.txt.gz
Wetbulb
66.26 73.38 75.79 77.18 77.12 76.82 76.95 76.52 76.37 76.22 76.27 76.34 76.54 76.69 76.58 76.41 76.48 76.59 76.31 75.99 75.82 74.62 73.74 72.58 71.03 69.83 69.14 68.46 67.97 67.95 68.30 69.57 71.39 73.13 73.63 73.70 73.93 73.91 73.65 73.26 72.65 72.39 73.16
67.73 73.87 75.77 76.92 77.27 76.82 76.67 76.60 76.20 75.77 75.72 75.77 75.92 75.84 75.89 75.99 75.91 75.76 75.61 75.14 74.80 73.47 72.25 70.93 69.41 68.09 67.57 66.84 66.33 65.92 65.61 65.51 66.48 68.35 70.97 72.63 73.10 73.22 73.50 72.97 72.60 72.16 72.68
69.24 74.07 75.22 76.81 77.22 76.90 76.47 76.37 75.94 75.71 75.59 75.47 75.22 75.24 75.09 75.14 75.12 75.01 74.54 73.97 73.23 72.17 70.86 69.62 68.72 67.92 67.26 66.67 66.27 66.18 65.76 65.44 65.47 65.17 65.80 64.80 69.50 72.64 72.95 72.61 72.84 72.00 73.02
69.91 73.89 74.99 76.86 76.89 76.77 76.29 76.08 75.85 75.73 75.66 75.41 75.09 75.07 74.97 74.77 74.54 74.10 73.50 72.84 71.81 70.59 69.87 69.29 68.44 67.95 67.57 67.45 67.33 67.31 67.27 67.06 67.57 68.42 64.93 64.53 63.52 72.10 72.35 73.04 73.08 72.12 72.42
70.42 73.49 74.63 76.68 76.64 76.62 76.32 75.98 75.64 75.67 75.45 75.33 75.31 75.06 74.62 74.49 74.04 73.57 73.23 72.62 71.19 70.27 69.87 68.93 68.41 68.24 68.03 68.09 67.89 67.87 67.96 68.83 70.23 69.33 67.93 67.41 66.69 67.46 72.19 72.62 72.75 72.39 72.35
70.66 73.09 75.07 76.44 76.24 76.19 76.29 76.01 75.53 75.58 75.38 75.38 75.28 75.04 74.76 74.42 73.72 73.10 72.81 72.57 72.07 70.62 69.65 69.32 69.67 69.55 68.91 68.42 68.18 68.21 68.91 70.23 69.84 68.07 68.58 68.24 64.96 66.63 72.28 72.41 72.44 72.21 72.93
70.02 71.63 74.82 76.11 76.11 76.29 76.19 75.84 75.63 75.48 75.23 75.10 75.33 75.11 74.91 74.36 73.49 72.93 72.66 72.65 72.39 71.77 70.64 70.23 70.28 70.51 70.26 69.31 68.62 69.03 69.82 69.52 69.29 68.79 68.33 68.19 67.63 69.16 72.63 72.81 72.97 72.53 72.66
68.65 70.18 74.17 75.89 76.04 75.84 75.82 75.54 75.40 75.22 75.00 75.15 75.10 75.03 74.88 74.32 73.66 72.93 72.61 72.58 72.32 71.83 71.31 70.80 70.88 70.68 70.66 70.31 69.60 69.60 69.55 69.18 69.85 69.18 68.89 68.12 68.19 69.39 72.52 73.24 73.10 72.71 71.62
67.05 70.37 72.17 73.92 75.32 75.94 75.45 75.22 75.09 74.91 74.66 74.63 74.51 74.46 74.51 74.39 73.68 72.85 72.24 72.19 72.33 71.71 71.46 71.29 71.12 71.03 70.90 70.12 70.09 70.41 69.65 69.61 69.48 69.27 68.92 68.40 68.12 69.64 72.08 72.73 72.14 72.02 72.51
66.19 68.55 69.66 71.08 72.91 73.91 74.54 75.51 75.27 75.05 74.69 74.41 74.52 74.50 74.52 74.30 73.74 73.14 71.77 71.89 72.33 72.01 71.67 71.52 71.52 71.59 71.17 70.70 70.87 70.60 69.73 70.43 69.55 68.95 69.00 68.10 68.92 69.72 71.53 72.70 71.98 72.05 71.96
66.39 65.97 68.00 69.99 70.71 71.75 72.41 74.30 75.09 75.23 74.99 74.62 74.63 74.61 73.63 73.13 72.57 72.07 71.40 71.60 72.09 71.96 71.86 71.81 71.76 71.82 71.30 70.51 70.27 70.00 70.12 69.32 68.95 68.94 68.55 68.16 68.70 69.99 71.46 72.45 72.37 71.92 72.06
64.34 65.97 67.40 68.72 70.07 70.42 72.19 72.00 73.10 72.83 73.50 73.31 73.38 73.22 72.98 71.99 70.58 70.57 71.20 71.73 72.08 71.86 71.84 71.76 71.75 71.86 70.61 68.78 68.80 70.12 69.37 69.07 68.93 69.04 68.51 68.95 69.29 70.07 71.60 72.40 72.35 71.95 72.08
64.51 65.94 67.55 68.11 68.71 69.41 69.16 68.77 70.17 69.65 71.73 71.84 71.19 71.39 71.82 69.68 69.90 70.59 68.57 69.86 68.87 70.98 68.09 70.21 70.15 69.92 68.70 68.00 67.83 67.81 68.10 68.16 68.01 68.21 68.27 69.38 70.00 70.03 71.93 72.22 72.55 71.92 71.37
63.59 65.20 66.75 67.17 67.37 67.29 66.68 67.22 68.07 68.86 67.87 68.14 68.27 68.29 68.82 67.03 66.56 67.12 66.63 66.36 66.61 66.52 66.43 66.23 66.97 67.80 67.93 67.42 67.50 67.18 67.26 67.08 66.69 67.00 67.53 69.27 70.35 70.48 71.51 72.78 72.80 72.19 71.56
64.89 65.70 66.18 66.97 66.75 67.24 66.19 67.03 67.53 67.73 67.31 67.19 66.88 66.79 66.94 66.31 65.32 65.14 65.60 64.59 64.97 64.66 65.18 64.96 64.96 65.70 66.68 67.02 66.92 67.12 66.98 66.98 66.67 66.50 66.86 68.63 70.00 70.65 71.37 72.45 72.35 72.37 71.14
66.85 66.24 67.34 66.59 66.58 66.81 66.41 64.88 66.31 67.34 67.12 66.70 66.54 67.00 66.79 66.26 65.32 64.38 64.18 64.05 63.19 63.75 64.03 64.48 64.21 64.29 65.05 66.01 65.88 66.55 66.87 66.75 66.52 66.62 66.84 67.52 69.22 70.43 71.50 71.94 72.39 72.13 71.21
66.56 67.91 67.49 66.99 65.99 65.31 65.45 65.17 65.07 65.85 66.42 65.88 65.99 66.52 66.66 65.90 64.61 64.30 63.23 62.91 63.25 62.67 63.33 63.95 63.58 63.54 63.60 64.30 64.59 65.08 65.96 66.38 65.93 66.43 66.72 67.12 67.60 69.33 70.95 71.30 71.53 71.23 70.82
64.60 68.02 68.84 68.71 67.32 65.83 64.46 64.29 64.03 64.31 65.60 65.41 65.20 65.14 66.00 66.02 65.20 63.82 62.72 62.22 62.61 62.22 62.74 63.29 62.98 62.63 62.69 62.86 63.09 63.90 64.57 65.14 65.58 66.15 66.42 66.85 68.01 69.34 69.80 71.19 71.15 71.19 70.83
62.37 63.20 66.64 69.19 68.39 67.55 67.36 66.83 66.46 65.94 65.48 65.66 65.66 64.99 64.98 65.61 65.30 63.82 62.72 62.31 61.74 61.84 62.19 62.66 62.53 62.94 61.72 62.00 62.70 63.22 64.24 64.92 65.92 66.24 66.50 67.26 67.66 69.01 69.61 68.77 69.19 69.71 70.29
59.02 61.98 63.37 64.72 66.24 65.02 64.45 65.23 66.01 66.15 66.42 66.59 66.40 66.23 65.87 65.33 65.28 64.00 63.25 62.50 61.91 61.60 61.81 62.29 62.32 62.63 62.23 62.46 62.75 63.58 64.36 65.19 65.92 66.07 66.97 67.39 67.44 68.28 68.73 67.80 67.73 67.78 69.33
54.69 57.10 59.84 60.23 63.37 65.61 64.54 64.79 65.08 65.57 66.47 67.10 67.38 67.74 66.73 66.31 66.08 64.61 64.19 63.18 62.23 61.93 62.24 62.49 62.49 62.10 61.74 63.02 62.44 62.57 63.61 65.03 65.61 66.37 67.11 66.55 66.66 67.45 67.81 67.28 67.26 67.22 68.05
52.88 54.63 56.18 58.15 60.45 63.25 66.32 66.33 66.27 66.29 66.70 67.95 68.34 67.96 67.58 66.94 66.73 65.87 64.90 64.26 63.32 62.72 62.46 62.45 62.61 61.68 62.40 63.03 61.38 61.61 60.53 62.57 63.44 65.50 65.67 65.76 65.79 66.50 66.48 66.49 66.43 66.25 66.61
49.69 52.36 54.44 55.71 57.76 59.10 64.37 65.78 64.83 64.37 64.28 66.06 66.75 67.80 67.98 68.05 67.62 67.02 65.63 65.41 64.16 64.04 62.43 62.97 63.26 62.60 61.43 61.99 63.67 62.81 58.89 58.94 59.35 60.74 62.88 64.04 64.74 64.81 65.34 65.66 65.68 65.77 66.14
48.38 50.00 51.30 53.49 55.17 57.57 59.02 64.73 64.57 65.51 64.87 66.17 67.33 67.84 67.55 68.58 68.64 67.93 66.86 66.23 65.37 64.70 63.99 63.16 64.09 63.79 63.05 61.41 62.47 64.01 63.95 62.48 59.78 58.64 61.15 61.64 62.63 63.14 63.61 63.85 64.74 65.48 65.76
49.79 48.67 49.19 50.97 52.94 56.37 58.01 61.32 64.70 64.75 65.43 66.12 63.23 65.62 65.54 65.76 67.59 68.15 68.31 67.08 66.03 65.30 65.41 63.97 64.11 63.38 64.05 63.22 63.76 63.43 63.26 63.09 62.88 59.51 58.13 60.21 60.66 62.28 62.98 63.31 63.85 64.65 64.79
49.12 49.51 47.96 49.02 52.30 56.34 58.93 60.29 61.98 63.80 64.60 61.76 60.95 61.78 62.31 62.44 63.84 65.68 67.37 67.46 66.73 66.14 65.45 64.54 64.71 64.25 64.05 65.13 64.77 64.31 63.30 62.63 61.23 59.64 60.03 58.60 59.21 60.32 61.33 62.79 63.15 63.57 63.96